Observation data for New Home on 01/20/2019      Previous  Date  Next       Current Mesonet Observations  Soil Data  Daily Summary Page  Observations in Plain Language
KNH1 200600Z 13007KT 01/M04 A303 RMK A01 T00121044  RH  066%=      5-min Rain = 0
KNH1 200601Z 13007KT 01/M04 A303 RMK A01 T00121044  RH  066%=      5-min Rain = 0
KNH1 200602Z 13007KT 01/M04 A303 RMK A01 T00121044  RH  066%=      5-min Rain = 0
KNH1 200603Z 14006KT 01/M04 A303 RMK A01 T00111044  RH  066%=      5-min Rain = 0
KNH1 200604Z 13006KT 01/M04 A303 RMK A01 T00111044  RH  066%=      5-min Rain = 0
KNH1 200605Z 13006KT 01/M04 A303 RMK A01 T00111044  RH  067%=      5-min Rain = 0
KNH1 200606Z 13006KT 01/M04 A303 RMK A01 T00111044  RH  067%=      5-min Rain = 0
KNH1 200607Z 13006KT 01/M04 A303 RMK A01 T00101044  RH  067%=      5-min Rain = 0
KNH1 200608Z 13006KT 01/M04 A303 RMK A01 T00101044  RH  067%=      5-min Rain = 0
KNH1 200609Z 13006KT 01/M04 A303 RMK A01 T00091044  RH  068%=      5-min Rain = 0
KNH1 200610Z 13006KT 01/M04 A303 RMK A01 T00091043  RH  068%=      5-min Rain = 0
KNH1 200611Z 13005KT 01/M04 A3031 RMK A01 T00091043  RH  068%=      5-min Rain = 0
KNH1 200612Z 13005KT 01/M04 A3031 RMK A01 T00091043  RH  068%=      5-min Rain = 0
KNH1 200613Z 13005KT 01/M04 A3031 RMK A01 T00091043  RH  068%=      5-min Rain = 0
KNH1 200614Z 14005KT 01/M04 A3031 RMK A01 T00091043  RH  068%=      5-min Rain = 0
KNH1 200615Z 14005KT 01/M04 A3031 RMK A01 T00091044  RH  068%=      5-min Rain = 0
KNH1 200616Z 14005KT 01/M04 A3031 RMK A01 T00081044  RH  068%=      5-min Rain = 0
KNH1 200617Z 13005KT 01/M04 A303 RMK A01 T00081044  RH  068%=      5-min Rain = 0
KNH1 200618Z 14005KT 01/M04 A303 RMK A01 T00071044  RH  068%=      5-min Rain = 0
KNH1 200619Z 14006KT 01/M04 A303 RMK A01 T00071044  RH  069%=      5-min Rain = 0
KNH1 200620Z 14006KT 01/M04 A303 RMK A01 T00071044  RH  069%=      5-min Rain = 0
KNH1 200621Z 14005KT 01/M05 A303 RMK A01 T00061045  RH  069%=      5-min Rain = 0
KNH1 200622Z 14005KT 01/M04 A303 RMK A01 T00061044  RH  069%=      5-min Rain = 0
KNH1 200623Z 14005KT 01/M05 A303 RMK A01 T00051045  RH  069%=      5-min Rain = 0
KNH1 200624Z 14005KT 00/M05 A3031 RMK A01 T00041045  RH  069%=      5-min Rain = 0
KNH1 200625Z 13004KT 01/M04 A3031 RMK A01 T00051044  RH  070%=      5-min Rain = 0
KNH1 200626Z 14005KT 00/M05 A3031 RMK A01 T00041045  RH  070%=      5-min Rain = 0
KNH1 200627Z 14005KT 00/M05 A3031 RMK A01 T00031045  RH  070%=      5-min Rain = 0
KNH1 200628Z 13004KT 00/M05 A3031 RMK A01 T00021045  RH  070%=      5-min Rain = 0
KNH1 200629Z 14004KT 00/M05 A303 RMK A01 T00021045  RH  070%=      5-min Rain = 0
KNH1 200630Z 14005KT 00/M05 A303 RMK A01 T00021045  RH  071%=      5-min Rain = 0
KNH1 200631Z 15005KT 00/M05 A303 RMK A01 T00021045  RH  071%=      5-min Rain = 0
KNH1 200632Z 15005KT 00/M05 A303 RMK A01 T00011045  RH  071%=      5-min Rain = 0
KNH1 200633Z 14006KT 00/M05 A303 RMK A01 T00021045  RH  071%=      5-min Rain = 0
KNH1 200634Z 14005KT 00/M05 A303 RMK A01 T00011045  RH  071%=      5-min Rain = 0
KNH1 200635Z 14004KT 00/M05 A303 RMK A01 T00011045  RH  071%=      5-min Rain = 0
KNH1 200636Z 14005KT 00/M05 A303 RMK A01 T00011046  RH  071%=      5-min Rain = 0
KNH1 200637Z 14005KT 00/M05 A3031 RMK A01 T00011046  RH  071%=      5-min Rain = 0
KNH1 200638Z 14005KT 00/M05 A3031 RMK A01 T00011046  RH  071%=      5-min Rain = 0
KNH1 200639Z 14006KT 00/M05 A3031 RMK A01 T00011046  RH  071%=      5-min Rain = 0
KNH1 200640Z 14005KT 00/05 A3031 RMK A01 T00000-47  RH  071%=      5-min Rain = 0
KNH1 200641Z 15005KT 00/05 A3031 RMK A01 T00000-47  RH  070%=      5-min Rain = 0
KNH1 200642Z 14005KT 00/05 A3031 RMK A01 T00000-47  RH  071%=      5-min Rain = 0
KNH1 200643Z 15005KT 00/05 A3031 RMK A01 T00000-47  RH  071%=      5-min Rain = 0
KNH1 200644Z 15004KT 00/05 A3031 RMK A01 T00000-47  RH  071%=      5-min Rain = 0
KNH1 200645Z 15005KT 00/05 A3031 RMK A01 T00000-47  RH  071%=      5-min Rain = 0
KNH1 200646Z 15003KT 00/M05 A3031 RMK A01 T00011046  RH  071%=      5-min Rain = 0
KNH1 200647Z 15003KT 00/M05 A3031 RMK A01 T00011046  RH  071%=      5-min Rain = 0
KNH1 200648Z 15005KT 00/M05 A3031 RMK A01 T00011046  RH  070%=      5-min Rain = 0
KNH1 200649Z 16005KT 00/M05 A3031 RMK A01 T00011046  RH  070%=      5-min Rain = 0
KNH1 200650Z 17005KT 00/M05 A3031 RMK A01 T00011048  RH  070%=      5-min Rain = 0
KNH1 200651Z 17005KT M00/M05 A3031 RMK A01 T10011049  RH  070%=      5-min Rain = 0
KNH1 200652Z 17005KT M00/M05 A3031 RMK A01 T10021049  RH  071%=      5-min Rain = 0
KNH1 200653Z 17005KT M00/M05 A3031 RMK A01 T10031050  RH  071%=      5-min Rain = 0
KNH1 200654Z 18005KT M00/M05 A3031 RMK A01 T10041050  RH  071%=      5-min Rain = 0
KNH1 200655Z 17005KT M01/M05 A3031 RMK A01 T10051051  RH  071%=      5-min Rain = 0
KNH1 200656Z 16006KT M01/M05 A3031 RMK A01 T10051051  RH  071%=      5-min Rain = 0
KNH1 200657Z 16005KT M01/M05 A3031 RMK A01 T10051050  RH  072%=      5-min Rain = 0
KNH1 200658Z 15004KT M01/M05 A303 RMK A01 T10051050  RH  072%=      5-min Rain = 0
KNH1 200659Z 15004KT M01/M05 A303 RMK A01 T10051050  RH  072%=      5-min Rain = 0
KNH1 200700Z 16005KT M01/M05 A303 RMK A01 T10051049  RH  072%=      5-min Rain = 0
KNH1 200701Z 15004KT M01/M05 A303 RMK A01 T10051049  RH  072%=      5-min Rain = 0
KNH1 200702Z 16004KT M00/M05 A3031 RMK A01 T10041049  RH  072%=      5-min Rain = 0
KNH1 200703Z 16004KT M00/M05 A3031 RMK A01 T10041049  RH  072%=      5-min Rain = 0
KNH1 200704Z 15003KT M00/M05 A3031 RMK A01 T10041049  RH  071%=      5-min Rain = 0
KNH1 200705Z 15004KT M00/M05 A3031 RMK A01 T10041050  RH  071%=      5-min Rain = 0
KNH1 200706Z 15004KT M00/M05 A3031 RMK A01 T10041050  RH  071%=      5-min Rain = 0
KNH1 200707Z 15004KT M01/M05 A303 RMK A01 T10051050  RH  071%=      5-min Rain = 0
KNH1 200708Z 15004KT M01/M05 A303 RMK A01 T10051050  RH  072%=      5-min Rain = 0
KNH1 200709Z 15004KT M01/M05 A303 RMK A01 T10061050  RH  072%=      5-min Rain = 0
KNH1 200710Z 15005KT M01/M05 A303 RMK A01 T10061050  RH  072%=      5-min Rain = 0
KNH1 200711Z 16004KT M01/M05 A303 RMK A01 T10071050  RH  073%=      5-min Rain = 0
KNH1 200712Z 15005KT M01/M05 A303 RMK A01 T10071050  RH  073%=      5-min Rain = 0
KNH1 200713Z 15004KT M01/M05 A3029 RMK A01 T10071050  RH  073%=      5-min Rain = 0
KNH1 200714Z 15004KT M01/M05 A3029 RMK A01 T10081051  RH  073%=      5-min Rain = 0
KNH1 200715Z 16004KT M01/M05 A3029 RMK A01 T10081050  RH  073%=      5-min Rain = 0
KNH1 200716Z 16004KT M01/M05 A3029 RMK A01 T10091050  RH  073%=      5-min Rain = 0
KNH1 200717Z 16005KT M01/M05 A303 RMK A01 T10091050  RH  074%=      5-min Rain = 0
KNH1 200718Z 17005KT M01/M05 A303 RMK A01 T10081050  RH  074%=      5-min Rain = 0
KNH1 200719Z 17006KT M01/M05 A303 RMK A01 T10091050  RH  074%=      5-min Rain = 0
KNH1 200720Z 16006KT M01/M05 A303 RMK A01 T10081049  RH  074%=      5-min Rain = 0
KNH1 200721Z 16005KT M01/M05 A303 RMK A01 T10071049  RH  074%=      5-min Rain = 0
KNH1 200722Z 16005KT M01/M05 A303 RMK A01 T10071048  RH  073%=      5-min Rain = 0
KNH1 200723Z 17004KT M01/M05 A303 RMK A01 T10071048  RH  073%=      5-min Rain = 0
KNH1 200724Z 17004KT M01/M05 A303 RMK A01 T10061048  RH  073%=      5-min Rain = 0
KNH1 200725Z 17004KT M01/M05 A303 RMK A01 T10061048  RH  073%=      5-min Rain = 0
KNH1 200726Z 17004KT M01/M05 A303 RMK A01 T10071049  RH  073%=      5-min Rain = 0
KNH1 200727Z 16005KT M01/M05 A3029 RMK A01 T10071049  RH  073%=      5-min Rain = 0
KNH1 200728Z 16005KT M01/M05 A303 RMK A01 T10071048  RH  074%=      5-min Rain = 0
KNH1 200729Z 16005KT M01/M05 A303 RMK A01 T10081048  RH  074%=      5-min Rain = 0
KNH1 200730Z 16004KT M01/M05 A303 RMK A01 T10081049  RH  074%=      5-min Rain = 0
KNH1 200731Z 16005KT M01/M05 A303 RMK A01 T10081048  RH  074%=      5-min Rain = 0
KNH1 200732Z 17005KT M01/M05 A303 RMK A01 T10071047  RH  074%=      5-min Rain = 0
KNH1 200733Z 17005KT M01/M05 A303 RMK A01 T10061047  RH  074%=      5-min Rain = 0
KNH1 200734Z 17005KT M01/M05 A303 RMK A01 T10061048  RH  074%=      5-min Rain = 0
KNH1 200735Z 17005KT M01/M05 A303 RMK A01 T10071047  RH  074%=      5-min Rain = 0
KNH1 200736Z 17006KT M01/M05 A303 RMK A01 T10071047  RH  074%=      5-min Rain = 0
KNH1 200737Z 16005KT M01/M05 A303 RMK A01 T10061046  RH  074%=      5-min Rain = 0
KNH1 200738Z 15005KT M01/M05 A303 RMK A01 T10051047  RH  074%=      5-min Rain = 0
KNH1 200739Z 16005KT M01/M05 A303 RMK A01 T10051047  RH  073%=      5-min Rain = 0
KNH1 200740Z 16006KT M01/M05 A303 RMK A01 T10051047  RH  073%=      5-min Rain = 0
KNH1 200741Z 17006KT M01/M05 A303 RMK A01 T10051047  RH  073%=      5-min Rain = 0
KNH1 200742Z 17006KT M01/M05 A303 RMK A01 T10051047  RH  073%=      5-min Rain = 0
KNH1 200743Z 17006KT M01/M05 A303 RMK A01 T10051048  RH  073%=      5-min Rain = 0
KNH1 200744Z 17005KT M01/M05 A303 RMK A01 T10061048  RH  073%=      5-min Rain = 0
KNH1 200745Z 17005KT M01/M05 A303 RMK A01 T10061048  RH  073%=      5-min Rain = 0
KNH1 200746Z 17006KT M01/M05 A303 RMK A01 T10061048  RH  073%=      5-min Rain = 0
KNH1 200747Z 17006KT M01/M05 A303 RMK A01 T10061048  RH  074%=      5-min Rain = 0
KNH1 200748Z 17006KT M01/M05 A303 RMK A01 T10061047  RH  074%=      5-min Rain = 0
KNH1 200749Z 17005KT M01/M05 A303 RMK A01 T10061047  RH  073%=      5-min Rain = 0
KNH1 200750Z 17005KT M01/M05 A303 RMK A01 T10061047  RH  073%=      5-min Rain = 0
KNH1 200751Z 17005KT M01/M05 A303 RMK A01 T10061048  RH  073%=      5-min Rain = 0
KNH1 200752Z 17005KT M01/M05 A303 RMK A01 T10061048  RH  073%=      5-min Rain = 0
KNH1 200753Z 17005KT M01/M05 A303 RMK A01 T10061048  RH  073%=      5-min Rain = 0
KNH1 200754Z 17005KT M01/M05 A303 RMK A01 T10061048  RH  074%=      5-min Rain = 0
KNH1 200755Z 18004KT M01/M05 A303 RMK A01 T10061047  RH  074%=      5-min Rain = 0
KNH1 200756Z 18005KT M01/M05 A303 RMK A01 T10061047  RH  074%=      5-min Rain = 0
KNH1 200757Z 18006KT M01/M05 A303 RMK A01 T10061047  RH  074%=      5-min Rain = 0
KNH1 200758Z 18006KT M01/M05 A303 RMK A01 T10071047  RH  074%=      5-min Rain = 0
KNH1 200759Z 17005KT M01/M05 A303 RMK A01 T10071046  RH  074%=      5-min Rain = 0
KNH1 200800Z 18005KT M01/M05 A303 RMK A01 T10071046  RH  075%=      5-min Rain = 0
KNH1 200801Z 17005KT M01/M05 A303 RMK A01 T10061046  RH  075%=      5-min Rain = 0
KNH1 200802Z 18004KT M01/M05 A303 RMK A01 T10061046  RH  075%=      5-min Rain = 0
KNH1 200803Z 17004KT M01/M05 A303 RMK A01 T10061045  RH  075%=      5-min Rain = 0
KNH1 200804Z 18005KT M01/M05 A303 RMK A01 T10061045  RH  075%=      5-min Rain = 0
KNH1 200805Z 18005KT M01/M05 A303 RMK A01 T10061045  RH  075%=      5-min Rain = 0
KNH1 200806Z 18005KT M01/M05 A3029 RMK A01 T10061046  RH  075%=      5-min Rain = 0
KNH1 200807Z 18004KT M01/M05 A3029 RMK A01 T10071046  RH  075%=      5-min Rain = 0
KNH1 200808Z 17004KT M01/M05 A3029 RMK A01 T10081046  RH  076%=      5-min Rain = 0
KNH1 200809Z 18004KT M01/M05 A3029 RMK A01 T10081045  RH  076%=      5-min Rain = 0
KNH1 200810Z 18004KT M01/M05 A3029 RMK A01 T10091045  RH  076%=      5-min Rain = 0
KNH1 200811Z 18005KT M01/M05 A3029 RMK A01 T10101047  RH  076%=      5-min Rain = 0
KNH1 200812Z 18005KT M01/M05 A3029 RMK A01 T10121048  RH  076%=      5-min Rain = 0
KNH1 200813Z 18005KT M01/M05 A3029 RMK A01 T10141050  RH  077%=      5-min Rain = 0
KNH1 200814Z 18005KT M02/M05 A3029 RMK A01 T10151049  RH  077%=      5-min Rain = 0
KNH1 200815Z 17006KT M02/M05 A3029 RMK A01 T10151047  RH  079%=      5-min Rain = 0
KNH1 200816Z 17005KT M01/M05 A3029 RMK A01 T10131045  RH  079%=      5-min Rain = 0
KNH1 200817Z 17005KT M01/M04 A3029 RMK A01 T10111043  RH  079%=      5-min Rain = 0
KNH1 200818Z 18006KT M01/M04 A3029 RMK A01 T10101043  RH  078%=      5-min Rain = 0
KNH1 200819Z 18005KT M01/M04 A3029 RMK A01 T10091044  RH  078%=      5-min Rain = 0
KNH1 200820Z 18006KT M01/M04 A3029 RMK A01 T10091044  RH  077%=      5-min Rain = 0
KNH1 200821Z 18006KT M01/M05 A3029 RMK A01 T10091045  RH  077%=      5-min Rain = 0
KNH1 200822Z 18005KT M01/M05 A3029 RMK A01 T10101046  RH  077%=      5-min Rain = 0
KNH1 200823Z 18004KT M01/M05 A3029 RMK A01 T10121047  RH  077%=      5-min Rain = 0
KNH1 200824Z 18005KT M01/M05 A3029 RMK A01 T10131048  RH  077%=      5-min Rain = 0
KNH1 200825Z 18004KT M01/M05 A3029 RMK A01 T10141048  RH  078%=      5-min Rain = 0
KNH1 200826Z 18004KT M01/M05 A3029 RMK A01 T10141048  RH  078%=      5-min Rain = 0
KNH1 200827Z 18005KT M02/M05 A3029 RMK A01 T10151047  RH  079%=      5-min Rain = 0
KNH1 200828Z 18005KT M02/M05 A3029 RMK A01 T10151047  RH  079%=      5-min Rain = 0
KNH1 200829Z 18005KT M02/M05 A3029 RMK A01 T10151047  RH  079%=      5-min Rain = 0
KNH1 200830Z 17005KT M02/M05 A3029 RMK A01 T10151047  RH  079%=      5-min Rain = 0
KNH1 200831Z 17005KT M01/M05 A3029 RMK A01 T10141045  RH  079%=      5-min Rain = 0
KNH1 200832Z 17005KT M01/M04 A3029 RMK A01 T10121043  RH  079%=      5-min Rain = 0
KNH1 200833Z 17005KT M01/M04 A3029 RMK A01 T10101043  RH  078%=      5-min Rain = 0
KNH1 200834Z 17005KT M01/M04 A3029 RMK A01 T10091043  RH  078%=      5-min Rain = 0
KNH1 200835Z 17005KT M01/M04 A3029 RMK A01 T10081043  RH  077%=      5-min Rain = 0
KNH1 200836Z 18004KT M01/M04 A3029 RMK A01 T10081043  RH  077%=      5-min Rain = 0
KNH1 200837Z 18004KT M01/M04 A3029 RMK A01 T10081044  RH  076%=      5-min Rain = 0
KNH1 200838Z 17004KT M01/M04 A3029 RMK A01 T10081044  RH  076%=      5-min Rain = 0
KNH1 200839Z 17004KT M01/M04 A3029 RMK A01 T10081044  RH  076%=      5-min Rain = 0
KNH1 200840Z 17004KT M01/M04 A3029 RMK A01 T10081044  RH  076%=      5-min Rain = 0
KNH1 200841Z 17004KT M01/M04 A3029 RMK A01 T10081044  RH  076%=      5-min Rain = 0
KNH1 200842Z 17004KT M01/M04 A3029 RMK A01 T10081044  RH  076%=      5-min Rain = 0
KNH1 200843Z 16005KT M01/M04 A3029 RMK A01 T10081044  RH  076%=      5-min Rain = 0
KNH1 200844Z 16005KT M01/M04 A3029 RMK A01 T10081044  RH  076%=      5-min Rain = 0
KNH1 200845Z 16004KT M01/M05 A3029 RMK A01 T10081045  RH  076%=      5-min Rain = 0
KNH1 200846Z 15004KT M01/M05 A3029 RMK A01 T10091045  RH  076%=      5-min Rain = 0
KNH1 200847Z 15004KT M01/M05 A3029 RMK A01 T10091045  RH  077%=      5-min Rain = 0
KNH1 200848Z 15003KT M01/M05 A3029 RMK A01 T10091045  RH  077%=      5-min Rain = 0
KNH1 200849Z 15004KT M01/M05 A3029 RMK A01 T10101046  RH  077%=      5-min Rain = 0
KNH1 200850Z 16004KT M01/M05 A3029 RMK A01 T10111046  RH  077%=      5-min Rain = 0
KNH1 200851Z 16005KT M01/M05 A3029 RMK A01 T10111046  RH  077%=      5-min Rain = 0
KNH1 200852Z 17005KT M01/M05 A3029 RMK A01 T10101045  RH  077%=      5-min Rain = 0
KNH1 200853Z 17005KT M01/M05 A3029 RMK A01 T10111045  RH  077%=      5-min Rain = 0
KNH1 200854Z 17005KT M01/M05 A3029 RMK A01 T10111046  RH  077%=      5-min Rain = 0
KNH1 200855Z 17006KT M01/M05 A3029 RMK A01 T10101045  RH  077%=      5-min Rain = 0
KNH1 200856Z 17006KT M01/M05 A3029 RMK A01 T10111046  RH  077%=      5-min Rain = 0
KNH1 200857Z 17006KT M01/M05 A3029 RMK A01 T10111046  RH  077%=      5-min Rain = 0
KNH1 200858Z 16005KT M01/M05 A3029 RMK A01 T10111046  RH  077%=      5-min Rain = 0
KNH1 200859Z 16005KT M01/M05 A3029 RMK A01 T10111046  RH  077%=      5-min Rain = 0
KNH1 200900Z 16004KT M01/M05 A3029 RMK A01 T10111046  RH  077%=      5-min Rain = 0
KNH1 200901Z 16004KT M01/M05 A3029 RMK A01 T10121046  RH  077%=      5-min Rain = 0
KNH1 200902Z 15004KT M01/M05 A3029 RMK A01 T10121046  RH  078%=      5-min Rain = 0
KNH1 200903Z 15003KT M01/M05 A3029 RMK A01 T10131047  RH  078%=      5-min Rain = 0
KNH1 200904Z 15004KT M01/M05 A3029 RMK A01 T10131047  RH  078%=      5-min Rain = 0
KNH1 200905Z 15004KT M01/M05 A3029 RMK A01 T10141048  RH  078%=      5-min Rain = 0
KNH1 200906Z 16004KT M02/M05 A3029 RMK A01 T10151048  RH  078%=      5-min Rain = 0
KNH1 200907Z 16004KT M02/M05 A3029 RMK A01 T10151048  RH  078%=      5-min Rain = 0
KNH1 200908Z 16004KT M02/M05 A303 RMK A01 T10151048  RH  078%=      5-min Rain = 0
KNH1 200909Z 16005KT M02/M05 A303 RMK A01 T10151048  RH  078%=      5-min Rain = 0
KNH1 200910Z 16004KT M02/M05 A303 RMK A01 T10151048  RH  078%=      5-min Rain = 0
KNH1 200911Z 16004KT M02/M05 A303 RMK A01 T10151048  RH  078%=      5-min Rain = 0
KNH1 200912Z 15004KT M02/M05 A303 RMK A01 T10151048  RH  078%=      5-min Rain = 0
KNH1 200913Z 15004KT M01/M05 A303 RMK A01 T10141047  RH  078%=      5-min Rain = 0
KNH1 200914Z 16004KT M01/M05 A303 RMK A01 T10141048  RH  078%=      5-min Rain = 0
KNH1 200915Z 16003KT M01/M05 A303 RMK A01 T10141048  RH  078%=      5-min Rain = 0
KNH1 200916Z 16003KT M02/M05 A3029 RMK A01 T10151048  RH  078%=      5-min Rain = 0
KNH1 200917Z 16003KT M02/M05 A3029 RMK A01 T10151048  RH  078%=      5-min Rain = 0
KNH1 200918Z 15004KT M02/M05 A303 RMK A01 T10151048  RH  079%=      5-min Rain = 0
KNH1 200919Z 15003KT M02/M05 A303 RMK A01 T10161048  RH  079%=      5-min Rain = 0
KNH1 200920Z 15004KT M02/M05 A303 RMK A01 T10161048  RH  079%=      5-min Rain = 0
KNH1 200921Z 15004KT M02/M05 A303 RMK A01 T10171049  RH  079%=      5-min Rain = 0
KNH1 200922Z 14004KT M02/M05 A303 RMK A01 T10171049  RH  079%=      5-min Rain = 0
KNH1 200923Z 14004KT M02/M05 A303 RMK A01 T10171049  RH  079%=      5-min Rain = 0
KNH1 200924Z 15004KT M02/M05 A303 RMK A01 T10181050  RH  079%=      5-min Rain = 0
KNH1 200925Z 15004KT M02/M05 A303 RMK A01 T10181050  RH  079%=      5-min Rain = 0
KNH1 200926Z 16004KT M02/M05 A3029 RMK A01 T10181049  RH  079%=      5-min Rain = 0
KNH1 200927Z 16004KT M02/M05 A3029 RMK A01 T10191049  RH  080%=      5-min Rain = 0
KNH1 200928Z 16004KT M02/M05 A3029 RMK A01 T10181049  RH  080%=      5-min Rain = 0
KNH1 200929Z 16004KT M02/M05 A3029 RMK A01 T10181049  RH  079%=      5-min Rain = 0
KNH1 200930Z 16003KT M02/M05 A3029 RMK A01 T10171049  RH  079%=      5-min Rain = 0
KNH1 200931Z 15003KT M02/M05 A3029 RMK A01 T10171049  RH  079%=      5-min Rain = 0
KNH1 200932Z 15003KT M02/M05 A303 RMK A01 T10181049  RH  079%=      5-min Rain = 0
KNH1 200933Z 15003KT M02/M05 A303 RMK A01 T10181050  RH  079%=      5-min Rain = 0
KNH1 200934Z 16003KT M02/M05 A303 RMK A01 T10181050  RH  079%=      5-min Rain = 0
KNH1 200935Z 16004KT M02/M05 A303 RMK A01 T10191050  RH  079%=      5-min Rain = 0
KNH1 200936Z 17004KT M02/M05 A303 RMK A01 T10191049  RH  080%=      5-min Rain = 0
KNH1 200937Z 16004KT M02/M05 A303 RMK A01 T10191050  RH  080%=      5-min Rain = 0
KNH1 200938Z 16004KT M02/M05 A303 RMK A01 T10191050  RH  080%=      5-min Rain = 0
KNH1 200939Z 16003KT M02/M05 A303 RMK A01 T10191049  RH  080%=      5-min Rain = 0
KNH1 200940Z 15003KT M02/M05 A303 RMK A01 T10191050  RH  080%=      5-min Rain = 0
KNH1 200941Z 15003KT M02/M05 A303 RMK A01 T10191049  RH  080%=      5-min Rain = 0
KNH1 200942Z 15003KT M02/M05 A303 RMK A01 T10201049  RH  080%=      5-min Rain = 0
KNH1 200943Z 15003KT M02/M05 A303 RMK A01 T10201050  RH  080%=      5-min Rain = 0
KNH1 200944Z 14004KT M02/M05 A303 RMK A01 T10201050  RH  080%=      5-min Rain = 0
KNH1 200945Z 14003KT M02/M05 A303 RMK A01 T10211050  RH  080%=      5-min Rain = 0
KNH1 200946Z 13004KT M02/M05 A3029 RMK A01 T10211050  RH  081%=      5-min Rain = 0
KNH1 200947Z 12004KT M02/M05 A3029 RMK A01 T10211050  RH  081%=      5-min Rain = 0
KNH1 200948Z 14003KT M02/M05 A3029 RMK A01 T10221050  RH  081%=      5-min Rain = 0
KNH1 200949Z 15003KT M02/M05 A3029 RMK A01 T10221051  RH  081%=      5-min Rain = 0
KNH1 200950Z 15003KT M02/M05 A3029 RMK A01 T10221051  RH  081%=      5-min Rain = 0
KNH1 200951Z 15003KT M02/M05 A3029 RMK A01 T10221050  RH  081%=      5-min Rain = 0
KNH1 200952Z 15004KT M02/M05 A3029 RMK A01 T10221050  RH  081%=      5-min Rain = 0
KNH1 200953Z 15004KT M02/M05 A3029 RMK A01 T10221051  RH  081%=      5-min Rain = 0
KNH1 200954Z 15004KT M02/M05 A3029 RMK A01 T10221050  RH  081%=      5-min Rain = 0
KNH1 200955Z 14003KT M02/M05 A3029 RMK A01 T10221050  RH  081%=      5-min Rain = 0
KNH1 200956Z 14004KT M02/M05 A3029 RMK A01 T10221051  RH  081%=      5-min Rain = 0
KNH1 200957Z 14004KT M02/M05 A3029 RMK A01 T10221051  RH  081%=      5-min Rain = 0
KNH1 200958Z 14004KT M02/M05 A3029 RMK A01 T10231051  RH  081%=      5-min Rain = 0
KNH1 200959Z 14004KT M02/M05 A3029 RMK A01 T10231051  RH  081%=      5-min Rain = 0
KNH1 201000Z 14003KT M02/M05 A3029 RMK A01 T10231051  RH  081%=      5-min Rain = 0
KNH1 201001Z 15003KT M02/M05 A3029 RMK A01 T10231051  RH  081%=      5-min Rain = 0
KNH1 201002Z 15003KT M02/M05 A3029 RMK A01 T10241051  RH  081%=      5-min Rain = 0
KNH1 201003Z 14004KT M02/M05 A3029 RMK A01 T10241051  RH  081%=      5-min Rain = 0
KNH1 201004Z 14003KT M02/M05 A3029 RMK A01 T10241052  RH  081%=      5-min Rain = 0
KNH1 201005Z 14004KT M02/M05 A3029 RMK A01 T10241051  RH  082%=      5-min Rain = 0
KNH1 201006Z 14003KT M03/M05 A3029 RMK A01 T10251052  RH  082%=      5-min Rain = 0
KNH1 201007Z 14003KT M02/M05 A3029 RMK A01 T10241051  RH  082%=      5-min Rain = 0
KNH1 201008Z 14003KT M02/M05 A3029 RMK A01 T10241051  RH  082%=      5-min Rain = 0
KNH1 201009Z 14003KT M02/M05 A3029 RMK A01 T10241051  RH  082%=      5-min Rain = 0
KNH1 201010Z 13003KT M03/M05 A3029 RMK A01 T10251051  RH  082%=      5-min Rain = 0
KNH1 201011Z 13003KT M02/M05 A3029 RMK A01 T10241051  RH  082%=      5-min Rain = 0
KNH1 201012Z 14004KT M02/M05 A3029 RMK A01 T10241051  RH  082%=      5-min Rain = 0
KNH1 201013Z 14003KT M03/M05 A3029 RMK A01 T10251051  RH  082%=      5-min Rain = 0
KNH1 201014Z 14003KT M02/M05 A3029 RMK A01 T10241051  RH  082%=      5-min Rain = 0
KNH1 201015Z 14003KT M02/M05 A3029 RMK A01 T10241051  RH  082%=      5-min Rain = 0
KNH1 201016Z 14003KT M03/M05 A3029 RMK A01 T10251051  RH  082%=      5-min Rain = 0
KNH1 201017Z 14003KT M02/M05 A3028 RMK A01 T10241051  RH  082%=      5-min Rain = 0
KNH1 201018Z 14003KT M02/M05 A3028 RMK A01 T10241051  RH  082%=      5-min Rain = 0
KNH1 201019Z 15003KT M02/M05 A3028 RMK A01 T10241051  RH  082%=      5-min Rain = 0
KNH1 201020Z 15003KT M02/M05 A3028 RMK A01 T10241050  RH  082%=      5-min Rain = 0
KNH1 201021Z 15003KT M03/M05 A3028 RMK A01 T10251050  RH  083%=      5-min Rain = 0
KNH1 201022Z 15003KT M02/M05 A3028 RMK A01 T10241050  RH  083%=      5-min Rain = 0
KNH1 201023Z 15004KT M02/M05 A3028 RMK A01 T10241049  RH  083%=      5-min Rain = 0
KNH1 201024Z 15003KT M02/M05 A3028 RMK A01 T10231048  RH  083%=      5-min Rain = 0
KNH1 201025Z 15004KT M02/M05 A3028 RMK A01 T10231048  RH  083%=      5-min Rain = 0
KNH1 201026Z 15003KT M02/M05 A3028 RMK A01 T10221048  RH  082%=      5-min Rain = 0
KNH1 201027Z 15003KT M02/M05 A3028 RMK A01 T10211048  RH  082%=      5-min Rain = 0
KNH1 201028Z 15003KT M02/M05 A3028 RMK A01 T10211048  RH  082%=      5-min Rain = 0
KNH1 201029Z 16004KT M02/M05 A3028 RMK A01 T10201047  RH  082%=      5-min Rain = 0
KNH1 201030Z 15004KT M02/M05 A3028 RMK A01 T10201047  RH  082%=      5-min Rain = 0
KNH1 201031Z 15003KT M02/M05 A3028 RMK A01 T10201047  RH  081%=      5-min Rain = 0
KNH1 201032Z 15004KT M02/M05 A3028 RMK A01 T10191047  RH  081%=      5-min Rain = 0
KNH1 201033Z 15004KT M02/M05 A3028 RMK A01 T10191048  RH  081%=      5-min Rain = 0
KNH1 201034Z 16004KT M02/M05 A3028 RMK A01 T10191048  RH  081%=      5-min Rain = 0
KNH1 201035Z 15004KT M02/M05 A3028 RMK A01 T10191048  RH  081%=      5-min Rain = 0
KNH1 201036Z 15003KT M02/M05 A3028 RMK A01 T10191048  RH  080%=      5-min Rain = 0
KNH1 201037Z 15004KT M02/M05 A3028 RMK A01 T10191048  RH  080%=      5-min Rain = 0
KNH1 201038Z 15004KT M02/M05 A3028 RMK A01 T10191048  RH  081%=      5-min Rain = 0
KNH1 201039Z 15004KT M02/M05 A3028 RMK A01 T10191048  RH  081%=      5-min Rain = 0
KNH1 201040Z 15004KT M02/M05 A3028 RMK A01 T10191048  RH  081%=      5-min Rain = 0
KNH1 201041Z 15004KT M02/M05 A3028 RMK A01 T10201048  RH  081%=      5-min Rain = 0
KNH1 201042Z 15004KT M02/M05 A3027 RMK A01 T10191048  RH  081%=      5-min Rain = 0
KNH1 201043Z 14004KT M02/M05 A3027 RMK A01 T10191048  RH  081%=      5-min Rain = 0
KNH1 201044Z 15004KT M02/M05 A3027 RMK A01 T10191048  RH  081%=      5-min Rain = 0
KNH1 201045Z 14004KT M02/M05 A3027 RMK A01 T10201049  RH  081%=      5-min Rain = 0
KNH1 201046Z 15003KT M02/M05 A3027 RMK A01 T10201049  RH  081%=      5-min Rain = 0
KNH1 201047Z 14004KT M02/M05 A3027 RMK A01 T10201049  RH  081%=      5-min Rain = 0
KNH1 201048Z 14004KT M02/M05 A3027 RMK A01 T10201049  RH  081%=      5-min Rain = 0
KNH1 201049Z 14004KT M02/M05 A3027 RMK A01 T10211049  RH  081%=      5-min Rain = 0
KNH1 201050Z 13004KT M02/M05 A3027 RMK A01 T10211049  RH  081%=      5-min Rain = 0
KNH1 201051Z 13004KT M02/M05 A3027 RMK A01 T10211049  RH  081%=      5-min Rain = 0
KNH1 201052Z 13004KT M02/M05 A3027 RMK A01 T10221049  RH  081%=      5-min Rain = 0
KNH1 201053Z 13004KT M02/M05 A3027 RMK A01 T10221049  RH  081%=      5-min Rain = 0
KNH1 201054Z 12004KT M02/M05 A3027 RMK A01 T10221050  RH  082%=      5-min Rain = 0
KNH1 201055Z 12004KT M02/M05 A3027 RMK A01 T10231050  RH  082%=      5-min Rain = 0
KNH1 201056Z 13004KT M02/M05 A3027 RMK A01 T10231050  RH  082%=      5-min Rain = 0
KNH1 201057Z 13004KT M02/M05 A3027 RMK A01 T10241050  RH  082%=      5-min Rain = 0
KNH1 201058Z 14004KT M02/M05 A3027 RMK A01 T10241051  RH  082%=      5-min Rain = 0
KNH1 201059Z 14004KT M03/M05 A3027 RMK A01 T10251051  RH  082%=      5-min Rain = 0
KNH1 201100Z 14003KT M03/M05 A3027 RMK A01 T10251051  RH  082%=      5-min Rain = 0
KNH1 201101Z 14004KT M03/M05 A3027 RMK A01 T10251051  RH  082%=      5-min Rain = 0
KNH1 201102Z 14005KT M03/M05 A3027 RMK A01 T10251051  RH  082%=      5-min Rain = 0
KNH1 201103Z 14005KT M03/M05 A3027 RMK A01 T10261051  RH  083%=      5-min Rain = 0
KNH1 201104Z 14005KT M03/M05 A3027 RMK A01 T10261051  RH  083%=      5-min Rain = 0
KNH1 201105Z 14005KT M03/M05 A3027 RMK A01 T10261051  RH  083%=      5-min Rain = 0
KNH1 201106Z 14005KT M03/M05 A3027 RMK A01 T10261051  RH  083%=      5-min Rain = 0
KNH1 201107Z 14004KT M03/M05 A3027 RMK A01 T10261051  RH  083%=      5-min Rain = 0
KNH1 201108Z 15004KT M03/M05 A3027 RMK A01 T10261051  RH  083%=      5-min Rain = 0
KNH1 201109Z 14004KT M03/M05 A3027 RMK A01 T10261051  RH  083%=      5-min Rain = 0
KNH1 201110Z 14005KT M03/M05 A3027 RMK A01 T10261050  RH  083%=      5-min Rain = 0
KNH1 201111Z 14005KT M03/M05 A3027 RMK A01 T10261050  RH  083%=      5-min Rain = 0
KNH1 201112Z 14005KT M03/M05 A3027 RMK A01 T10251050  RH  083%=      5-min Rain = 0
KNH1 201113Z 14004KT M03/M05 A3027 RMK A01 T10251049  RH  083%=      5-min Rain = 0
KNH1 201114Z 14004KT M02/M05 A3027 RMK A01 T10241049  RH  083%=      5-min Rain = 0
KNH1 201115Z 13004KT M03/M05 A3027 RMK A01 T10251050  RH  083%=      5-min Rain = 0
KNH1 201116Z 14004KT M03/M05 A3027 RMK A01 T10251050  RH  083%=      5-min Rain = 0
KNH1 201117Z 14004KT M03/M05 A3027 RMK A01 T10251050  RH  083%=      5-min Rain = 0
KNH1 201118Z 14004KT M03/M05 A3027 RMK A01 T10251050  RH  083%=      5-min Rain = 0
KNH1 201119Z 14004KT M03/M05 A3027 RMK A01 T10251050  RH  083%=      5-min Rain = 0
KNH1 201120Z 14004KT M03/M05 A3027 RMK A01 T10261050  RH  083%=      5-min Rain = 0
KNH1 201121Z 15005KT M03/M05 A3027 RMK A01 T10261050  RH  083%=      5-min Rain = 0
KNH1 201122Z 14005KT M03/M05 A3027 RMK A01 T10261050  RH  083%=      5-min Rain = 0
KNH1 201123Z 14005KT M03/M05 A3027 RMK A01 T10261050  RH  084%=      5-min Rain = 0
KNH1 201124Z 14005KT M03/M05 A3027 RMK A01 T10261050  RH  084%=      5-min Rain = 0
KNH1 201125Z 14005KT M03/M05 A3027 RMK A01 T10261050  RH  084%=      5-min Rain = 0
KNH1 201126Z 15005KT M03/M05 A3027 RMK A01 T10261050  RH  083%=      5-min Rain = 0
KNH1 201127Z 15005KT M03/M05 A3027 RMK A01 T10261050  RH  083%=      5-min Rain = 0
KNH1 201128Z 15004KT M03/M05 A3027 RMK A01 T10261050  RH  083%=      5-min Rain = 0
KNH1 201129Z 14004KT M03/M05 A3027 RMK A01 T10261050  RH  083%=      5-min Rain = 0
KNH1 201130Z 15004KT M03/M05 A3027 RMK A01 T10261050  RH  083%=      5-min Rain = 0
KNH1 201131Z 15004KT M03/M05 A3027 RMK A01 T10261050  RH  083%=      5-min Rain = 0
KNH1 201132Z 15004KT M03/M05 A3027 RMK A01 T10261050  RH  083%=      5-min Rain = 0
KNH1 201133Z 14004KT M03/M05 A3027 RMK A01 T10261050  RH  083%=      5-min Rain = 0
KNH1 201134Z 15004KT M03/M05 A3027 RMK A01 T10261050  RH  083%=      5-min Rain = 0
KNH1 201135Z 15004KT M03/M05 A3027 RMK A01 T10261051  RH  083%=      5-min Rain = 0
KNH1 201136Z 15004KT M03/M05 A3027 RMK A01 T10271051  RH  083%=      5-min Rain = 0
KNH1 201137Z 15004KT M03/M05 A3027 RMK A01 T10271050  RH  084%=      5-min Rain = 0
KNH1 201138Z 15004KT M03/M05 A3027 RMK A01 T10271050  RH  084%=      5-min Rain = 0
KNH1 201139Z 15004KT M03/M05 A3026 RMK A01 T10271050  RH  084%=      5-min Rain = 0
KNH1 201140Z 15005KT M03/M05 A3026 RMK A01 T10271050  RH  084%=      5-min Rain = 0
KNH1 201141Z 15004KT M03/M05 A3026 RMK A01 T10271050  RH  084%=      5-min Rain = 0
KNH1 201142Z 15005KT M03/M05 A3026 RMK A01 T10271050  RH  084%=      5-min Rain = 0
KNH1 201143Z 15005KT M03/M05 A3026 RMK A01 T10261050  RH  084%=      5-min Rain = 0
KNH1 201144Z 15005KT M03/M05 A3026 RMK A01 T10261050  RH  083%=      5-min Rain = 0
KNH1 201145Z 15005KT M03/M05 A3026 RMK A01 T10261051  RH  083%=      5-min Rain = 0
KNH1 201146Z 15005KT M03/M05 A3026 RMK A01 T10261051  RH  083%=      5-min Rain = 0
KNH1 201147Z 15005KT M03/M05 A3026 RMK A01 T10271051  RH  083%=      5-min Rain = 0
KNH1 201148Z 15005KT M03/M05 A3026 RMK A01 T10271051  RH  083%=      5-min Rain = 0
KNH1 201149Z 14005KT M03/M05 A3026 RMK A01 T10271051  RH  084%=      5-min Rain = 0
KNH1 201150Z 15004KT M03/M05 A3026 RMK A01 T10271051  RH  084%=      5-min Rain = 0
KNH1 201151Z 15005KT M03/M05 A3026 RMK A01 T10271050  RH  084%=      5-min Rain = 0
KNH1 201152Z 15005KT M03/M05 A3026 RMK A01 T10271051  RH  084%=      5-min Rain = 0
KNH1 201153Z 15005KT M03/M05 A3026 RMK A01 T10271051  RH  084%=      5-min Rain = 0
KNH1 201154Z 14005KT M03/M05 A3026 RMK A01 T10281052  RH  083%=      5-min Rain = 0
KNH1 201155Z 14005KT M03/M05 A3026 RMK A01 T10281052  RH  083%=      5-min Rain = 0
KNH1 201156Z 15005KT M03/M05 A3026 RMK A01 T10281052  RH  083%=      5-min Rain = 0
KNH1 201157Z 14005KT M03/M05 A3026 RMK A01 T10281053  RH  083%=      5-min Rain = 0
KNH1 201158Z 14006KT M03/M05 A3026 RMK A01 T10281053  RH  083%=      5-min Rain = 0
KNH1 201159Z 14005KT M03/M05 A3025 RMK A01 T10281054  RH  082%=      5-min Rain = 0
KNH1 201200Z 14006KT M03/M05 A3025 RMK A01 T10281054  RH  082%=      5-min Rain = 0
KNH1 201201Z 14006KT M03/M06 A3026 RMK A01 T10281055  RH  082%=      5-min Rain = 0
KNH1 201202Z 13004KT M03/M06 A3026 RMK A01 T10281055  RH  082%=      5-min Rain = 0
KNH1 201203Z 13005KT M03/M06 A3026 RMK A01 T10281055  RH  082%=      5-min Rain = 0
KNH1 201204Z 13005KT M03/M06 A3026 RMK A01 T10281055  RH  082%=      5-min Rain = 0
KNH1 201205Z 14005KT M03/M06 A3026 RMK A01 T10281055  RH  082%=      5-min Rain = 0
KNH1 201206Z 14005KT M03/M06 A3026 RMK A01 T10281055  RH  082%=      5-min Rain = 0
KNH1 201207Z 14005KT M03/M06 A3026 RMK A01 T10281055  RH  082%=      5-min Rain = 0
KNH1 201208Z 14005KT M03/M06 A3026 RMK A01 T10281055  RH  082%=      5-min Rain = 0
KNH1 201209Z 14004KT M03/M06 A3026 RMK A01 T10291056  RH  082%=      5-min Rain = 0
KNH1 201210Z 14005KT M03/M06 A3026 RMK A01 T10291056  RH  081%=      5-min Rain = 0
KNH1 201211Z 14004KT M03/M06 A3026 RMK A01 T10291056  RH  081%=      5-min Rain = 0
KNH1 201212Z 14004KT M03/M06 A3026 RMK A01 T10291057  RH  081%=      5-min Rain = 0
KNH1 201213Z 13004KT M03/M06 A3026 RMK A01 T10281056  RH  081%=      5-min Rain = 0
KNH1 201214Z 13004KT M03/M06 A3026 RMK A01 T10291057  RH  081%=      5-min Rain = 0
KNH1 201215Z 13003KT M03/M06 A3026 RMK A01 T10291057  RH  081%=      5-min Rain = 0
KNH1 201216Z 13004KT M03/M06 A3026 RMK A01 T10281057  RH  081%=      5-min Rain = 0
KNH1 201217Z 14004KT M03/M06 A3026 RMK A01 T10291057  RH  081%=      5-min Rain = 0
KNH1 201218Z 14005KT M03/M06 A3026 RMK A01 T10281057  RH  081%=      5-min Rain = 0
KNH1 201219Z 15004KT M03/M06 A3026 RMK A01 T10281057  RH  081%=      5-min Rain = 0
KNH1 201220Z 15005KT M03/M06 A3026 RMK A01 T10291057  RH  081%=      5-min Rain = 0
KNH1 201221Z 15004KT M03/M06 A3026 RMK A01 T10291057  RH  081%=      5-min Rain = 0
KNH1 201222Z 15005KT M03/M06 A3026 RMK A01 T10281057  RH  080%=      5-min Rain = 0
KNH1 201223Z 15005KT M03/M06 A3025 RMK A01 T10281057  RH  080%=      5-min Rain = 0
KNH1 201224Z 15005KT M03/M06 A3025 RMK A01 T10281058  RH  080%=      5-min Rain = 0
KNH1 201225Z 15004KT M03/M06 A3025 RMK A01 T10271057  RH  080%=      5-min Rain = 0
KNH1 201226Z 15005KT M03/M06 A3025 RMK A01 T10271058  RH  079%=      5-min Rain = 0
KNH1 201227Z 15004KT M03/M06 A3025 RMK A01 T10271058  RH  079%=      5-min Rain = 0
KNH1 201228Z 15005KT M03/M06 A3025 RMK A01 T10271058  RH  079%=      5-min Rain = 0
KNH1 201229Z 15004KT M03/M06 A3025 RMK A01 T10271058  RH  079%=      5-min Rain = 0
KNH1 201230Z 14005KT M03/M06 A3025 RMK A01 T10271057  RH  079%=      5-min Rain = 0
KNH1 201231Z 15005KT M03/M06 A3025 RMK A01 T10271057  RH  079%=      5-min Rain = 0
KNH1 201232Z 15006KT M03/M06 A3025 RMK A01 T10271058  RH  079%=      5-min Rain = 0
KNH1 201233Z 16007KT M03/M06 A3025 RMK A01 T10261057  RH  079%=      5-min Rain = 0
KNH1 201234Z 15006KT M03/M06 A3025 RMK A01 T10251057  RH  078%=      5-min Rain = 0
KNH1 201235Z 15004KT M03/M06 A3025 RMK A01 T10251058  RH  078%=      5-min Rain = 0
KNH1 201236Z 15004KT M03/M06 A3025 RMK A01 T10251058  RH  078%=      5-min Rain = 0
KNH1 201237Z 16004KT M03/M06 A3025 RMK A01 T10251058  RH  078%=      5-min Rain = 0
KNH1 201238Z 16006KT M03/M06 A3025 RMK A01 T10251058  RH  078%=      5-min Rain = 0
KNH1 201239Z 16006KT M03/M06 A3025 RMK A01 T10261058  RH  079%=      5-min Rain = 0
KNH1 201240Z 16007KT M03/M06 A3025 RMK A01 T10261058  RH  079%=      5-min Rain = 0
KNH1 201241Z 16006KT M03/M06 A3025 RMK A01 T10261057  RH  079%=      5-min Rain = 0
KNH1 201242Z 15005KT M03/M06 A3025 RMK A01 T10261057  RH  079%=      5-min Rain = 0
KNH1 201243Z 15005KT M03/M06 A3025 RMK A01 T10261057  RH  079%=      5-min Rain = 0
KNH1 201244Z 15004KT M03/M06 A3025 RMK A01 T10261057  RH  079%=      5-min Rain = 0
KNH1 201245Z 16003KT M03/M06 A3025 RMK A01 T10251057  RH  079%=      5-min Rain = 0
KNH1 201246Z 16003KT M03/M06 A3025 RMK A01 T10251057  RH  079%=      5-min Rain = 0
KNH1 201247Z 16003KT M03/M06 A3025 RMK A01 T10261057  RH  079%=      5-min Rain = 0
KNH1 201248Z 16004KT M03/M06 A3025 RMK A01 T10261057  RH  079%=      5-min Rain = 0
KNH1 201249Z 15003KT M03/M06 A3025 RMK A01 T10261057  RH  080%=      5-min Rain = 0
KNH1 201250Z 15003KT M03/M06 A3025 RMK A01 T10271057  RH  080%=      5-min Rain = 0
KNH1 201251Z 15004KT M03/M06 A3025 RMK A01 T10271056  RH  080%=      5-min Rain = 0
KNH1 201252Z 15004KT M03/M06 A3025 RMK A01 T10271057  RH  080%=      5-min Rain = 0
KNH1 201253Z 15004KT M03/M06 A3025 RMK A01 T10271056  RH  080%=      5-min Rain = 0
KNH1 201254Z 15003KT M03/M06 A3025 RMK A01 T10281057  RH  081%=      5-min Rain = 0
KNH1 201255Z 15003KT M03/M06 A3025 RMK A01 T10281057  RH  081%=      5-min Rain = 0
KNH1 201256Z 15003KT M03/M06 A3025 RMK A01 T10281056  RH  081%=      5-min Rain = 0
KNH1 201257Z 16002KT M03/M06 A3025 RMK A01 T10271056  RH  081%=      5-min Rain = 0
KNH1 201258Z 17003KT M03/M06 A3025 RMK A01 T10281057  RH  081%=      5-min Rain = 0
KNH1 201259Z 16004KT M03/M06 A3025 RMK A01 T10281056  RH  081%=      5-min Rain = 0
KNH1 201300Z 16004KT M03/M06 A3025 RMK A01 T10281056  RH  081%=      5-min Rain = 0
KNH1 201301Z 16004KT M03/M06 A3025 RMK A01 T10281057  RH  081%=      5-min Rain = 0
KNH1 201302Z 16005KT M03/M06 A3025 RMK A01 T10281057  RH  081%=      5-min Rain = 0
KNH1 201303Z 16005KT M03/M06 A3025 RMK A01 T10281057  RH  081%=      5-min Rain = 0
KNH1 201304Z 17005KT M03/M06 A3025 RMK A01 T10281057  RH  080%=      5-min Rain = 0
KNH1 201305Z 17005KT M03/M06 A3025 RMK A01 T10281057  RH  080%=      5-min Rain = 0
KNH1 201306Z 17005KT M03/M06 A3025 RMK A01 T10281057  RH  080%=      5-min Rain = 0
KNH1 201307Z 16005KT M03/M06 A3025 RMK A01 T10291057  RH  080%=      5-min Rain = 0
KNH1 201308Z 17005KT M03/M06 A3025 RMK A01 T10281057  RH  081%=      5-min Rain = 0
KNH1 201309Z 17005KT M03/M06 A3025 RMK A01 T10291057  RH  081%=      5-min Rain = 0
KNH1 201310Z 16006KT M03/M06 A3025 RMK A01 T10281057  RH  081%=      5-min Rain = 0
KNH1 201311Z 16005KT M03/M06 A3025 RMK A01 T10291058  RH  080%=      5-min Rain = 0
KNH1 201312Z 16005KT M03/M06 A3025 RMK A01 T10291058  RH  080%=      5-min Rain = 0
KNH1 201313Z 16005KT M03/M06 A3025 RMK A01 T10291058  RH  080%=      5-min Rain = 0
KNH1 201314Z 16005KT M03/M06 A3025 RMK A01 T10291058  RH  080%=      5-min Rain = 0
KNH1 201315Z 17005KT M03/M06 A3025 RMK A01 T10291058  RH  080%=      5-min Rain = 0
KNH1 201316Z 17005KT M03/M06 A3025 RMK A01 T10281058  RH  080%=      5-min Rain = 0
KNH1 201317Z 17004KT M03/M06 A3025 RMK A01 T10291058  RH  080%=      5-min Rain = 0
KNH1 201318Z 17004KT M03/M06 A3025 RMK A01 T10291058  RH  080%=      5-min Rain = 0
KNH1 201319Z 18004KT M03/M06 A3025 RMK A01 T10291058  RH  080%=      5-min Rain = 0
KNH1 201320Z 17004KT M03/M06 A3025 RMK A01 T10291058  RH  080%=      5-min Rain = 0
KNH1 201321Z 17004KT M03/M06 A3025 RMK A01 T10291058  RH  081%=      5-min Rain = 0
KNH1 201322Z 17004KT M03/M06 A3025 RMK A01 T10291058  RH  081%=      5-min Rain = 0
KNH1 201323Z 17005KT M03/M06 A3025 RMK A01 T10291058  RH  080%=      5-min Rain = 0
KNH1 201324Z 17005KT M03/M06 A3025 RMK A01 T10291058  RH  080%=      5-min Rain = 0
KNH1 201325Z 17005KT M03/M06 A3025 RMK A01 T10291058  RH  080%=      5-min Rain = 0
KNH1 201326Z 17004KT M03/M06 A3025 RMK A01 T10291058  RH  080%=      5-min Rain = 0
KNH1 201327Z 17004KT M03/M06 A3025 RMK A01 T10291058  RH  080%=      5-min Rain = 0
KNH1 201328Z 18004KT M03/M06 A3025 RMK A01 T10291058  RH  081%=      5-min Rain = 0
KNH1 201329Z 19005KT M03/M06 A3025 RMK A01 T10301058  RH  081%=      5-min Rain = 0
KNH1 201330Z 18005KT M03/M06 A3025 RMK A01 T10301059  RH  081%=      5-min Rain = 0
KNH1 201331Z 19005KT M03/M06 A3025 RMK A01 T10311060  RH  081%=      5-min Rain = 0
KNH1 201332Z 19005KT M03/M06 A3025 RMK A01 T10321060  RH  081%=      5-min Rain = 0
KNH1 201333Z 19005KT M03/M06 A3025 RMK A01 T10321059  RH  081%=      5-min Rain = 0
KNH1 201334Z 19005KT M03/M06 A3025 RMK A01 T10321060  RH  082%=      5-min Rain = 0
KNH1 201335Z 19005KT M03/M06 A3025 RMK A01 T10331060  RH  082%=      5-min Rain = 0
KNH1 201336Z 19005KT M03/M06 A3026 RMK A01 T10341060  RH  082%=      5-min Rain = 0
KNH1 201337Z 19005KT M03/M06 A3026 RMK A01 T10341059  RH  082%=      5-min Rain = 0
KNH1 201338Z 19005KT M03/M06 A3026 RMK A01 T10341059  RH  082%=      5-min Rain = 0
KNH1 201339Z 19005KT M03/M06 A3026 RMK A01 T10341059  RH  083%=      5-min Rain = 0
KNH1 201340Z 19005KT M03/M06 A3026 RMK A01 T10341059  RH  083%=      5-min Rain = 0
KNH1 201341Z 20005KT M03/M06 A3026 RMK A01 T10341059  RH  083%=      5-min Rain = 0
KNH1 201342Z 20005KT M03/M06 A3026 RMK A01 T10341060  RH  083%=      5-min Rain = 0
KNH1 201343Z 20005KT M04/M06 A3026 RMK A01 T10351060  RH  083%=      5-min Rain = 0
KNH1 201344Z 21005KT M04/M06 A3026 RMK A01 T10351059  RH  083%=      5-min Rain = 0
KNH1 201345Z 21006KT M04/M06 A3026 RMK A01 T10351059  RH  083%=      5-min Rain = 0
KNH1 201346Z 21006KT M04/M06 A3026 RMK A01 T10361060  RH  083%=      5-min Rain = 0
KNH1 201347Z 21005KT M04/M06 A3026 RMK A01 T10361059  RH  084%=      5-min Rain = 0
KNH1 201348Z 21005KT M04/M06 A3026 RMK A01 T10351059  RH  084%=      5-min Rain = 0
KNH1 201349Z 21005KT M04/M06 A3026 RMK A01 T10351059  RH  084%=      5-min Rain = 0
KNH1 201350Z 21005KT M04/M06 A3026 RMK A01 T10351059  RH  084%=      5-min Rain = 0
KNH1 201351Z 21005KT M04/M06 A3026 RMK A01 T10351059  RH  084%=      5-min Rain = 0
KNH1 201352Z 21005KT M04/M06 A3026 RMK A01 T10351059  RH  084%=      5-min Rain = 0
KNH1 201353Z 20005KT M04/M06 A3026 RMK A01 T10361060  RH  084%=      5-min Rain = 0
KNH1 201354Z 20005KT M04/M06 A3026 RMK A01 T10361060  RH  084%=      5-min Rain = 0
KNH1 201355Z 20005KT M04/M06 A3026 RMK A01 T10371059  RH  084%=      5-min Rain = 0
KNH1 201356Z 20006KT M04/M06 A3026 RMK A01 T10371059  RH  084%=      5-min Rain = 0
KNH1 201357Z 20005KT M04/M06 A3026 RMK A01 T10371059  RH  084%=      5-min Rain = 0
KNH1 201358Z 20006KT M04/M06 A3026 RMK A01 T10361059  RH  084%=      5-min Rain = 0
KNH1 201359Z 20005KT M04/M06 A3026 RMK A01 T10361059  RH  084%=      5-min Rain = 0
KNH1 201400Z 20005KT M04/M06 A3026 RMK A01 T10361060  RH  084%=      5-min Rain = 0
KNH1 201401Z 20006KT M04/M06 A3026 RMK A01 T10361059  RH  084%=      5-min Rain = 0
KNH1 201402Z 20007KT M04/M06 A3026 RMK A01 T10361059  RH  084%=      5-min Rain = 0
KNH1 201403Z 20007KT M04/M06 A3026 RMK A01 T10351058  RH  084%=      5-min Rain = 0
KNH1 201404Z 20007KT M03/M06 A3026 RMK A01 T10341058  RH  083%=      5-min Rain = 0
KNH1 201405Z 20007KT M03/M06 A3026 RMK A01 T10341059  RH  083%=      5-min Rain = 0
KNH1 201406Z 20007KT M03/M06 A3026 RMK A01 T10341059  RH  083%=      5-min Rain = 0
KNH1 201407Z 20007KT M03/M06 A3026 RMK A01 T10341060  RH  083%=      5-min Rain = 0
KNH1 201408Z 20007KT M03/M06 A3026 RMK A01 T10341060  RH  083%=      5-min Rain = 0
KNH1 201409Z 20006KT M03/M06 A3026 RMK A01 T10341060  RH  082%=      5-min Rain = 0
KNH1 201410Z 20007KT M03/M06 A3026 RMK A01 T10341060  RH  083%=      5-min Rain = 0
KNH1 201411Z 20007KT M03/M06 A3026 RMK A01 T10341060  RH  083%=      5-min Rain = 0
KNH1 201412Z 20007KT M03/M06 A3026 RMK A01 T10341060  RH  083%=      5-min Rain = 0
KNH1 201413Z 20007KT M03/M06 A3026 RMK A01 T10341060  RH  083%=      5-min Rain = 0
KNH1 201414Z 20007KT M03/M06 A3026 RMK A01 T10341060  RH  083%=      5-min Rain = 0
KNH1 201415Z 20007KT M03/M06 A3026 RMK A01 T10341059  RH  083%=      5-min Rain = 0
KNH1 201416Z 20007KT M03/M06 A3026 RMK A01 T10341059  RH  083%=      5-min Rain = 0
KNH1 201417Z 20007KT M03/M06 A3026 RMK A01 T10331058  RH  082%=      5-min Rain = 0
KNH1 201418Z 20007KT M03/M06 A3026 RMK A01 T10321058  RH  082%=      5-min Rain = 0
KNH1 201419Z 20007KT M03/M06 A3026 RMK A01 T10321058  RH  082%=      5-min Rain = 0
KNH1 201420Z 20006KT M03/M06 A3026 RMK A01 T10311058  RH  082%=      5-min Rain = 0
KNH1 201421Z 19006KT M03/M06 A3026 RMK A01 T10311059  RH  081%=      5-min Rain = 0
KNH1 201422Z 20006KT M03/M06 A3026 RMK A01 T10311058  RH  082%=      5-min Rain = 0
KNH1 201423Z 20006KT M03/M06 A3026 RMK A01 T10311058  RH  082%=      5-min Rain = 0
KNH1 201424Z 20006KT M03/M06 A3026 RMK A01 T10311058  RH  082%=      5-min Rain = 0
KNH1 201425Z 20006KT M03/M06 A3026 RMK A01 T10311058  RH  082%=      5-min Rain = 0
KNH1 201426Z 19006KT M03/M06 A3026 RMK A01 T10311058  RH  081%=      5-min Rain = 0
KNH1 201427Z 20006KT M03/M06 A3026 RMK A01 T10301058  RH  081%=      5-min Rain = 0
KNH1 201428Z 20006KT M03/M06 A3026 RMK A01 T10291057  RH  081%=      5-min Rain = 0
KNH1 201429Z 20006KT M03/M06 A3026 RMK A01 T10291057  RH  081%=      5-min Rain = 0
KNH1 201430Z 19006KT M03/M06 A3026 RMK A01 T10291057  RH  081%=      5-min Rain = 0
KNH1 201431Z 20006KT M03/M06 A3026 RMK A01 T10281056  RH  081%=      5-min Rain = 0
KNH1 201432Z 19006KT M03/M06 A3026 RMK A01 T10281056  RH  081%=      5-min Rain = 0
KNH1 201433Z 19006KT M03/M06 A3026 RMK A01 T10271055  RH  081%=      5-min Rain = 0
KNH1 201434Z 19006KT M03/M05 A3026 RMK A01 T10261054  RH  081%=      5-min Rain = 0
KNH1 201435Z 19006KT M02/M05 A3026 RMK A01 T10241054  RH  080%=      5-min Rain = 0
KNH1 201436Z 19006KT M02/M05 A3026 RMK A01 T10231053  RH  080%=      5-min Rain = 0
KNH1 201437Z 18006KT M02/M05 A3026 RMK A01 T10221051  RH  080%=      5-min Rain = 0
KNH1 201438Z 18008KT M02/M05 A3026 RMK A01 T10211051  RH  080%=      5-min Rain = 0
KNH1 201439Z 19008KT M02/M05 A3026 RMK A01 T10181050  RH  079%=      5-min Rain = 0
KNH1 201440Z 18009KT M02/M05 A3026 RMK A01 T10161050  RH  078%=      5-min Rain = 0
KNH1 201441Z 19009KT M01/M05 A3026 RMK A01 T10141049  RH  077%=      5-min Rain = 0
KNH1 201442Z 19010KT M01/M05 A3026 RMK A01 T10131048  RH  077%=      5-min Rain = 0
KNH1 201443Z 19009KT M01/M05 A3026 RMK A01 T10111048  RH  076%=      5-min Rain = 0
KNH1 201444Z 19009KT M01/M05 A3026 RMK A01 T10101047  RH  076%=      5-min Rain = 0
KNH1 201445Z 19009KT M01/M05 A3026 RMK A01 T10081046  RH  075%=      5-min Rain = 0
KNH1 201446Z 19008KT M01/M05 A3026 RMK A01 T10071046  RH  075%=      5-min Rain = 0
KNH1 201447Z 18009KT M01/M05 A3026 RMK A01 T10061046  RH  074%=      5-min Rain = 0
KNH1 201448Z 19009KT M01/M05 A3026 RMK A01 T10061047  RH  074%=      5-min Rain = 0
KNH1 201449Z 18010KT M01/M05 A3026 RMK A01 T10051047  RH  073%=      5-min Rain = 0
KNH1 201450Z 19010KT M00/M05 A3025 RMK A01 T10041047  RH  073%=      5-min Rain = 0
KNH1 201451Z 18009KT M00/M05 A3025 RMK A01 T10031046  RH  073%=      5-min Rain = 0
KNH1 201452Z 18010KT M00/M05 A3025 RMK A01 T10031046  RH  073%=      5-min Rain = 0
KNH1 201453Z 18010KT M00/M05 A3025 RMK A01 T10021047  RH  072%=      5-min Rain = 0
KNH1 201454Z 18012KT M00/M05 A3025 RMK A01 T10011046  RH  072%=      5-min Rain = 0
KNH1 201455Z 18011KT M00/M05 A3025 RMK A01 T10011046  RH  072%=      5-min Rain = 0
KNH1 201456Z 18011KT 00/05 A3025 RMK A01 T00000-45  RH  071%=      5-min Rain = 0
KNH1 201457Z 18012KT 00/M05 A3025 RMK A01 T00011045  RH  071%=      5-min Rain = 0
KNH1 201458Z 18011KT 00/M05 A3025 RMK A01 T00011045  RH  071%=      5-min Rain = 0
KNH1 201459Z 18011KT 00/M04 A3025 RMK A01 T00021044  RH  071%=      5-min Rain = 0
KNH1 201500Z 18011KT 00/M04 A3025 RMK A01 T00031043  RH  071%=      5-min Rain = 0
KNH1 201501Z 19011KT 00/M04 A3025 RMK A01 T00041042  RH  071%=      5-min Rain = 0
KNH1 201502Z 18010KT 01/M04 A3025 RMK A01 T00051041  RH  071%=      5-min Rain = 0
KNH1 201503Z 18011KT 01/M04 A3025 RMK A01 T00061041  RH  071%=      5-min Rain = 0
KNH1 201504Z 19011KT 01/M04 A3025 RMK A01 T00071040  RH  071%=      5-min Rain = 0
KNH1 201505Z 19010KT 01/M04 A3025 RMK A01 T00081040  RH  070%=      5-min Rain = 0
KNH1 201506Z 19009KT 01/M04 A3025 RMK A01 T00091040  RH  070%=      5-min Rain = 0
KNH1 201507Z 19010KT 01/M04 A3025 RMK A01 T00101038  RH  070%=      5-min Rain = 0
KNH1 201508Z 19009KT 01/M04 A3025 RMK A01 T00111037  RH  070%=      5-min Rain = 0
KNH1 201509Z 19009KT 01/M04 A3025 RMK A01 T00121036  RH  070%=      5-min Rain = 0
KNH1 201510Z 18009KT 01/M04 A3025 RMK A01 T00131037  RH  070%=      5-min Rain = 0
KNH1 201511Z 18009KT 01/M04 A3025 RMK A01 T00131038  RH  069%=      5-min Rain = 0
KNH1 201512Z 18009KT 01/M04 A3025 RMK A01 T00131036  RH  070%=      5-min Rain = 0
KNH1 201513Z 18011KT 01/M04 A3025 RMK A01 T00141038  RH  069%=      5-min Rain = 0
KNH1 201514Z 18011KT 01/M04 A3025 RMK A01 T00131039  RH  068%=      5-min Rain = 0
KNH1 201515Z 18011KT 01/M04 A3025 RMK A01 T00131039  RH  068%=      5-min Rain = 0
KNH1 201516Z 18009KT 01/M04 A3025 RMK A01 T00131039  RH  068%=      5-min Rain = 0
KNH1 201517Z 18008KT 01/M04 A3025 RMK A01 T00141037  RH  069%=      5-min Rain = 0
KNH1 201518Z 18008KT 02/M04 A3025 RMK A01 T00151037  RH  069%=      5-min Rain = 0
KNH1 201519Z 18010KT 01/M04 A3025 RMK A01 T00141038  RH  068%=      5-min Rain = 0
KNH1 201520Z 18010KT 01/M04 A3025 RMK A01 T00131040  RH  067%=      5-min Rain = 0
KNH1 201521Z 18009KT 01/M04 A3025 RMK A01 T00131040  RH  068%=      5-min Rain = 0
KNH1 201522Z 18009KT 01/M04 A3025 RMK A01 T00131039  RH  068%=      5-min Rain = 0
KNH1 201523Z 18010KT 01/M04 A3025 RMK A01 T00131040  RH  068%=      5-min Rain = 0
KNH1 201524Z 18010KT 01/M04 A3025 RMK A01 T00131039  RH  068%=      5-min Rain = 0
KNH1 201525Z 18012KT 01/M04 A3025 RMK A01 T00141039  RH  068%=      5-min Rain = 0
KNH1 201526Z 18010KT 02/M04 A3025 RMK A01 T00151038  RH  068%=      5-min Rain = 0
KNH1 201527Z 18010KT 02/M04 A3025 RMK A01 T00161038  RH  067%=      5-min Rain = 0
KNH1 201528Z 18010KT 02/M04 A3025 RMK A01 T00161039  RH  067%=      5-min Rain = 0
KNH1 201529Z 18009KT 02/M04 A3025 RMK A01 T00161038  RH  067%=      5-min Rain = 0
KNH1 201530Z 18010KT 02/M04 A3026 RMK A01 T00171036  RH  068%=      5-min Rain = 0
KNH1 201531Z 18011KT 02/M04 A3026 RMK A01 T00181036  RH  068%=      5-min Rain = 0
KNH1 201532Z 18010KT 02/M04 A3026 RMK A01 T00181036  RH  067%=      5-min Rain = 0
KNH1 201533Z 18011KT 02/M04 A3026 RMK A01 T00191035  RH  067%=      5-min Rain = 0
KNH1 201534Z 18012KT 02/M04 A3026 RMK A01 T00201035  RH  067%=      5-min Rain = 0
KNH1 201535Z 18013KT 02/M04 A3026 RMK A01 T00211036  RH  066%=      5-min Rain = 0
KNH1 201536Z 19014KT 02/M04 A3026 RMK A01 T00211036  RH  066%=      5-min Rain = 0
KNH1 201537Z 19013KT 02/M04 A3026 RMK A01 T00221036  RH  066%=      5-min Rain = 0
KNH1 201538Z 18013KT 02/M04 A3026 RMK A01 T00221035  RH  066%=      5-min Rain = 0
KNH1 201539Z 19012KT 02/M03 A3026 RMK A01 T00231034  RH  066%=      5-min Rain = 0
KNH1 201540Z 19012KT 02/M03 A3026 RMK A01 T00241034  RH  065%=      5-min Rain = 0
KNH1 201541Z 19012KT 02/M03 A3026 RMK A01 T00241034  RH  065%=      5-min Rain = 0
KNH1 201542Z 19012KT 03/M03 A3026 RMK A01 T00251034  RH  065%=      5-min Rain = 0
KNH1 201543Z 19012KT 03/M03 A3026 RMK A01 T00251034  RH  065%=      5-min Rain = 0
KNH1 201544Z 19014KT 03/M03 A3026 RMK A01 T00261034  RH  065%=      5-min Rain = 0
KNH1 201545Z 19013KT 03/M04 A3026 RMK A01 T00251035  RH  064%=      5-min Rain = 0
KNH1 201546Z 18012KT 03/M03 A3026 RMK A01 T00251034  RH  065%=      5-min Rain = 0
KNH1 201547Z 19012KT 03/M03 A3026 RMK A01 T00261034  RH  065%=      5-min Rain = 0
KNH1 201548Z 19011KT 03/M04 A3026 RMK A01 T00251035  RH  065%=      5-min Rain = 0
KNH1 201549Z 19010KT 03/M03 A3026 RMK A01 T00261033  RH  065%=      5-min Rain = 0
KNH1 201550Z 19011KT 03/M03 A3026 RMK A01 T00281032  RH  065%=      5-min Rain = 0
KNH1 201551Z 20012KT 03/M03 A3026 RMK A01 T00281032  RH  064%=      5-min Rain = 0
KNH1 201552Z 19010KT 03/M03 A3026 RMK A01 T00291032  RH  064%=      5-min Rain = 0
KNH1 201553Z 19012KT 03/M03 A3026 RMK A01 T00301031  RH  064%=      5-min Rain = 0
KNH1 201554Z 19013KT 03/M03 A3026 RMK A01 T00301031  RH  064%=      5-min Rain = 0
KNH1 201555Z 19012KT 03/M03 A3026 RMK A01 T00301032  RH  064%=      5-min Rain = 0
KNH1 201556Z 19013KT 03/M03 A3026 RMK A01 T00311030  RH  064%=      5-min Rain = 0
KNH1 201557Z 19012KT 03/M03 A3026 RMK A01 T00321031  RH  063%=      5-min Rain = 0
KNH1 201558Z 19011KT 03/M03 A3026 RMK A01 T00331030  RH  063%=      5-min Rain = 0
KNH1 201559Z 19011KT 03/M03 A3026 RMK A01 T00331030  RH  063%=      5-min Rain = 0
KNH1 201600Z 19010KT 03/M03 A3026 RMK A01 T00341031  RH  063%=      5-min Rain = 0
KNH1 201601Z 20012KT 03/M03 A3026 RMK A01 T00341030  RH  063%=      5-min Rain = 0
KNH1 201602Z 19012KT 04/M03 A3026 RMK A01 T00351029  RH  063%=      5-min Rain = 0
KNH1 201603Z 19013KT 04/M03 A3026 RMK A01 T00361029  RH  063%=      5-min Rain = 0
KNH1 201604Z 19013KT 04/M03 A3026 RMK A01 T00361030  RH  062%=      5-min Rain = 0
KNH1 201605Z 19012KT 04/M03 A3026 RMK A01 T00371030  RH  062%=      5-min Rain = 0
KNH1 201606Z 19012KT 04/M03 A3026 RMK A01 T00371029  RH  062%=      5-min Rain = 0
KNH1 201607Z 18013KT 04/M03 A3026 RMK A01 T00381029  RH  062%=      5-min Rain = 0
KNH1 201608Z 19011KT 04/M03 A3026 RMK A01 T00381028  RH  062%=      5-min Rain = 0
KNH1 201609Z 19011KT 04/M03 A3026 RMK A01 T00391028  RH  061%=      5-min Rain = 0
KNH1 201610Z 19012KT 04/M03 A3026 RMK A01 T00401028  RH  061%=      5-min Rain = 0
KNH1 201611Z 19013KT 04/M03 A3026 RMK A01 T00401028  RH  061%=      5-min Rain = 0
KNH1 201612Z 19013KT 04/M03 A3026 RMK A01 T00401028  RH  061%=      5-min Rain = 0
KNH1 201613Z 19012KT 04/M03 A3026 RMK A01 T00391029  RH  061%=      5-min Rain = 0
KNH1 201614Z 20013KT 04/M03 A3026 RMK A01 T00401028  RH  061%=      5-min Rain = 0
KNH1 201615Z 19013KT 04/M03 A3026 RMK A01 T00401028  RH  061%=      5-min Rain = 0
KNH1 201616Z 19014KT 04/M03 A3026 RMK A01 T00411027  RH  061%=      5-min Rain = 0
KNH1 201617Z 19013KT 04/M03 A3026 RMK A01 T00421028  RH  061%=      5-min Rain = 0
KNH1 201618Z 19014KT 04/M03 A3026 RMK A01 T00441027  RH  060%=      5-min Rain = 0
KNH1 201619Z 19013KT 05/M03 A3026 RMK A01 T00451026  RH  060%=      5-min Rain = 0
KNH1 201620Z 20012KT 05/M03 A3025 RMK A01 T00451027  RH  059%=      5-min Rain = 0
KNH1 201621Z 20013KT 05/M03 A3025 RMK A01 T00461027  RH  059%=      5-min Rain = 0
KNH1 201622Z 19014KT 05/M03 A3025 RMK A01 T00461027  RH  059%=      5-min Rain = 0
KNH1 201623Z 19015KT 05/M03 A3025 RMK A01 T00461027  RH  059%=      5-min Rain = 0
KNH1 201624Z 19013KT 05/M03 A3025 RMK A01 T00461027  RH  059%=      5-min Rain = 0
KNH1 201625Z 20012KT 05/M03 A3025 RMK A01 T00481025  RH  059%=      5-min Rain = 0
KNH1 201626Z 19015KT 05/M03 A3025 RMK A01 T00491026  RH  058%=      5-min Rain = 0
KNH1 201627Z 19013KT 05/M03 A3025 RMK A01 T00481027  RH  058%=      5-min Rain = 0
KNH1 201628Z 20014KT 05/M03 A3025 RMK A01 T00481027  RH  058%=      5-min Rain = 0
KNH1 201629Z 20013KT 05/M03 A3025 RMK A01 T00481027  RH  058%=      5-min Rain = 0
KNH1 201630Z 20013KT 05/M03 A3025 RMK A01 T00481027  RH  058%=      5-min Rain = 0
KNH1 201631Z 21016KT 05/M03 A3025 RMK A01 T00501026  RH  058%=      5-min Rain = 0
KNH1 201632Z 20015KT 05/M03 A3025 RMK A01 T00501027  RH  057%=      5-min Rain = 0
KNH1 201633Z 20014KT 05/M03 A3025 RMK A01 T00511027  RH  057%=      5-min Rain = 0
KNH1 201634Z 20014KT 05/M03 A3025 RMK A01 T00511027  RH  057%=      5-min Rain = 0
KNH1 201635Z 20015KT 05/M03 A3025 RMK A01 T00521027  RH  057%=      5-min Rain = 0
KNH1 201636Z 20015KT 05/M03 A3025 RMK A01 T00521027  RH  056%=      5-min Rain = 0
KNH1 201637Z 20014KT 05/M03 A3025 RMK A01 T00531027  RH  056%=      5-min Rain = 0
KNH1 201638Z 19015KT 05/M03 A3025 RMK A01 T00531027  RH  056%=      5-min Rain = 0
KNH1 201639Z 19015KT 05/M03 A3025 RMK A01 T00541026  RH  056%=      5-min Rain = 0
KNH1 201640Z 20014KT 06/M03 A3025 RMK A01 T00561025  RH  056%=      5-min Rain = 0
KNH1 201641Z 20014KT 06/M03 A3025 RMK A01 T00561026  RH  056%=      5-min Rain = 0
KNH1 201642Z 21013KT 06/M03 A3025 RMK A01 T00571025  RH  056%=      5-min Rain = 0
KNH1 201643Z 20011G16KT 06/M02 A3025 RMK A01 T00581024  RH  056%=      5-min Rain = 0
KNH1 201644Z 20014KT 06/M02 A3025 RMK A01 T00591024  RH  055%=      5-min Rain = 0
KNH1 201645Z 20011KT 06/M02 A3025 RMK A01 T00591024  RH  055%=      5-min Rain = 0
KNH1 201646Z 21012KT 06/M02 A3025 RMK A01 T00621021  RH  055%=      5-min Rain = 0
KNH1 201647Z 20012KT 06/M02 A3025 RMK A01 T00631022  RH  054%=      5-min Rain = 0
KNH1 201648Z 20013KT 06/M02 A3025 RMK A01 T00621024  RH  054%=      5-min Rain = 0
KNH1 201649Z 20012KT 06/M02 A3025 RMK A01 T00611024  RH  055%=      5-min Rain = 0
KNH1 201650Z 20013KT 06/M02 A3024 RMK A01 T00631023  RH  054%=      5-min Rain = 0
KNH1 201651Z 20014KT 06/M02 A3024 RMK A01 T00641023  RH  053%=      5-min Rain = 0
KNH1 201652Z 21012KT 07/M02 A3024 RMK A01 T00651024  RH  053%=      5-min Rain = 0
KNH1 201653Z 20014KT 07/M02 A3024 RMK A01 T00651024  RH  053%=      5-min Rain = 0
KNH1 201654Z 21015KT 07/M03 A3024 RMK A01 T00651026  RH  052%=      5-min Rain = 0
KNH1 201655Z 21015KT 07/M03 A3024 RMK A01 T00651025  RH  052%=      5-min Rain = 0
KNH1 201656Z 21015KT 07/M03 A3024 RMK A01 T00671025  RH  052%=      5-min Rain = 0
KNH1 201657Z 22015KT 07/M03 A3024 RMK A01 T00671025  RH  052%=      5-min Rain = 0
KNH1 201658Z 21013KT 07/M03 A3024 RMK A01 T00691025  RH  051%=      5-min Rain = 0
KNH1 201659Z 21014KT 07/M02 A3025 RMK A01 T00711024  RH  051%=      5-min Rain = 0
KNH1 201700Z 21014KT 07/M03 A3025 RMK A01 T00721025  RH  050%=      5-min Rain = 0
KNH1 201701Z 20014KT 07/M03 A3025 RMK A01 T00691027  RH  050%=      5-min Rain = 0
KNH1 201702Z 21015KT 07/M03 A3025 RMK A01 T00701025  RH  051%=      5-min Rain = 0
KNH1 201703Z 21015KT 07/M03 A3025 RMK A01 T00711026  RH  050%=      5-min Rain = 0
KNH1 201704Z 22017KT 07/M03 A3025 RMK A01 T00711027  RH  050%=      5-min Rain = 0
KNH1 201705Z 22016KT 07/M03 A3025 RMK A01 T00721027  RH  049%=      5-min Rain = 0
KNH1 201706Z 22015KT 07/M03 A3025 RMK A01 T00721028  RH  049%=      5-min Rain = 0
KNH1 201707Z 22015KT 07/M03 A3025 RMK A01 T00731027  RH  049%=      5-min Rain = 0
KNH1 201708Z 22014KT 08/M03 A3025 RMK A01 T00751026  RH  049%=      5-min Rain = 0
KNH1 201709Z 21013KT 08/M03 A3025 RMK A01 T00751027  RH  048%=      5-min Rain = 0
KNH1 201710Z 21015KT 08/M03 A3025 RMK A01 T00751026  RH  048%=      5-min Rain = 0
KNH1 201711Z 22016KT 08/M03 A3025 RMK A01 T00751028  RH  048%=      5-min Rain = 0
KNH1 201712Z 22015KT 07/M03 A3025 RMK A01 T00741028  RH  048%=      5-min Rain = 0
KNH1 201713Z 22014KT 07/M03 A3025 RMK A01 T00741026  RH  049%=      5-min Rain = 0
KNH1 201714Z 22014KT 08/M03 A3025 RMK A01 T00761026  RH  048%=      5-min Rain = 0
KNH1 201715Z 22015KT 08/M03 A3025 RMK A01 T00761026  RH  048%=      5-min Rain = 0
KNH1 201716Z 22014KT 08/M03 A3025 RMK A01 T00771027  RH  048%=      5-min Rain = 0
KNH1 201717Z 22014KT 08/M03 A3025 RMK A01 T00781025  RH  048%=      5-min Rain = 0
KNH1 201718Z 21014KT 08/M03 A3025 RMK A01 T00791026  RH  047%=      5-min Rain = 0
KNH1 201719Z 21014KT 08/M03 A3025 RMK A01 T00781026  RH  048%=      5-min Rain = 0
KNH1 201720Z 22014KT 08/M03 A3025 RMK A01 T00791025  RH  048%=      5-min Rain = 0
KNH1 201721Z 22014KT 08/M03 A3025 RMK A01 T00801027  RH  047%=      5-min Rain = 0
KNH1 201722Z 22014KT 08/M03 A3025 RMK A01 T00801026  RH  047%=      5-min Rain = 0
KNH1 201723Z 22016KT 08/M03 A3024 RMK A01 T00821026  RH  047%=      5-min Rain = 0
KNH1 201724Z 23015KT 08/M03 A3024 RMK A01 T00811028  RH  046%=      5-min Rain = 0
KNH1 201725Z 21013KT 08/M03 A3024 RMK A01 T00811027  RH  046%=      5-min Rain = 0
KNH1 201726Z 22013KT 08/M02 A3024 RMK A01 T00841024  RH  046%=      5-min Rain = 0
KNH1 201727Z 22013KT 09/M03 A3024 RMK A01 T00861025  RH  046%=      5-min Rain = 0
KNH1 201728Z 22012KT 09/M02 A3024 RMK A01 T00861024  RH  046%=      5-min Rain = 0
KNH1 201729Z 22011KT 09/M02 A3024 RMK A01 T00871023  RH  046%=      5-min Rain = 0
KNH1 201730Z 21012KT 09/M02 A3024 RMK A01 T00891024  RH  045%=      5-min Rain = 0
KNH1 201731Z 21013KT 09/M02 A3024 RMK A01 T00871024  RH  045%=      5-min Rain = 0
KNH1 201732Z 21014KT 09/M03 A3024 RMK A01 T00881026  RH  045%=      5-min Rain = 0
KNH1 201733Z 22013KT 09/M03 A3024 RMK A01 T00871025  RH  045%=      5-min Rain = 0
KNH1 201734Z 23013KT 09/M03 A3024 RMK A01 T00871025  RH  045%=      5-min Rain = 0
KNH1 201735Z 22014KT 09/M03 A3024 RMK A01 T00891026  RH  045%=      5-min Rain = 0
KNH1 201736Z 22013KT 09/M03 A3024 RMK A01 T00891028  RH  044%=      5-min Rain = 0
KNH1 201737Z 23014KT 09/M03 A3024 RMK A01 T00891027  RH  044%=      5-min Rain = 0
KNH1 201738Z 22013KT 09/M03 A3024 RMK A01 T00911026  RH  044%=      5-min Rain = 0
KNH1 201739Z 23012KT 09/M03 A3024 RMK A01 T00931025  RH  044%=      5-min Rain = 0
KNH1 201740Z 22014KT 09/M03 A3024 RMK A01 T00941026  RH  043%=      5-min Rain = 0
KNH1 201741Z 22013KT 09/M03 A3024 RMK A01 T00921029  RH  042%=      5-min Rain = 0
KNH1 201742Z 22012KT 09/M03 A3024 RMK A01 T00901028  RH  043%=      5-min Rain = 0
KNH1 201743Z 23012KT 09/M03 A3023 RMK A01 T00911026  RH  044%=      5-min Rain = 0
KNH1 201744Z 23012KT 09/M03 A3023 RMK A01 T00931025  RH  043%=      5-min Rain = 0
KNH1 201745Z 22012KT 09/M03 A3023 RMK A01 T00941026  RH  043%=      5-min Rain = 0
KNH1 201746Z 21013KT 10/M03 A3023 RMK A01 T00951026  RH  042%=      5-min Rain = 0
KNH1 201747Z 22013KT 10/M03 A3023 RMK A01 T00961029  RH  041%=      5-min Rain = 0
KNH1 201748Z 22013KT 09/M03 A3023 RMK A01 T00941028  RH  042%=      5-min Rain = 0
KNH1 201749Z 22014KT 10/M03 A3023 RMK A01 T00951029  RH  042%=      5-min Rain = 0
KNH1 201750Z 22013KT 10/M03 A3023 RMK A01 T00961027  RH  042%=      5-min Rain = 0
KNH1 201751Z 22015KT 10/M03 A3023 RMK A01 T00981029  RH  041%=      5-min Rain = 0
KNH1 201752Z 22014KT 10/M03 A3023 RMK A01 T00971029  RH  041%=      5-min Rain = 0
KNH1 201753Z 22013KT 10/M03 A3023 RMK A01 T00971031  RH  040%=      5-min Rain = 0
KNH1 201754Z 22013KT 10/M03 A3023 RMK A01 T00951031  RH  041%=      5-min Rain = 0
KNH1 201755Z 22011KT 10/M03 A3023 RMK A01 T00951030  RH  041%=      5-min Rain = 0
KNH1 201756Z 23012KT 10/M03 A3023 RMK A01 T00971027  RH  042%=      5-min Rain = 0
KNH1 201757Z 23014KT 10/M03 A3023 RMK A01 T00991028  RH  041%=      5-min Rain = 0
KNH1 201758Z 23012KT 10/M03 A3022 RMK A01 T00991031  RH  040%=      5-min Rain = 0
KNH1 201759Z 22013KT 10/M03 A3022 RMK A01 T00991030  RH  040%=      5-min Rain = 0
KNH1 201800Z 22013KT 10/M03 A3022 RMK A01 T01011030  RH  040%=      5-min Rain = 0
KNH1 201801Z 22013KT 10/M03 A3022 RMK A01 T01021028  RH  040%=      5-min Rain = 0
KNH1 201802Z 22012KT 10/M03 A3022 RMK A01 T01041027  RH  040%=      5-min Rain = 0
KNH1 201803Z 22012KT 10/M03 A3022 RMK A01 T01041026  RH  040%=      5-min Rain = 0
KNH1 201804Z 22011KT 11/M02 A3022 RMK A01 T01071024  RH  040%=      5-min Rain = 0
KNH1 201805Z 22011KT 11/M03 A3022 RMK A01 T01091025  RH  039%=      5-min Rain = 0
KNH1 201806Z 22014KT 11/M03 A3022 RMK A01 T01081028  RH  038%=      5-min Rain = 0
KNH1 201807Z 22013KT 11/M03 A3022 RMK A01 T01081029  RH  038%=      5-min Rain = 0
KNH1 201808Z 22013KT 11/M03 A3021 RMK A01 T01071029  RH  038%=      5-min Rain = 0
KNH1 201809Z 22012KT 11/M03 A3021 RMK A01 T01071028  RH  039%=      5-min Rain = 0
KNH1 201810Z 21012KT 11/M03 A3021 RMK A01 T01081028  RH  038%=      5-min Rain = 0
KNH1 201811Z 21014KT 11/M03 A3021 RMK A01 T01091028  RH  038%=      5-min Rain = 0
KNH1 201812Z 22014KT 11/M03 A3021 RMK A01 T01091028  RH  038%=      5-min Rain = 0
KNH1 201813Z 21012KT 11/M03 A3021 RMK A01 T01081029  RH  038%=      5-min Rain = 0
KNH1 201814Z 21012KT 11/M03 A3021 RMK A01 T01081030  RH  038%=      5-min Rain = 0
KNH1 201815Z 22011KT 11/M03 A3021 RMK A01 T01121026  RH  038%=      5-min Rain = 0
KNH1 201816Z 21013KT 12/M03 A3021 RMK A01 T01151027  RH  037%=      5-min Rain = 0
KNH1 201817Z 21014KT 12/M03 A3021 RMK A01 T01161028  RH  036%=      5-min Rain = 0
KNH1 201818Z 21013KT 12/M03 A3021 RMK A01 T01151029  RH  036%=      5-min Rain = 0
KNH1 201819Z 22012KT 11/M03 A3021 RMK A01 T01141030  RH  036%=      5-min Rain = 0
KNH1 201820Z 22013KT 12/M03 A3021 RMK A01 T01151030  RH  036%=      5-min Rain = 0
KNH1 201821Z 22014KT 12/M03 A3021 RMK A01 T01161030  RH  036%=      5-min Rain = 0
KNH1 201822Z 22011KT 12/M03 A3021 RMK A01 T01171029  RH  036%=      5-min Rain = 0
KNH1 201823Z 22010KT 12/M03 A3021 RMK A01 T01201026  RH  036%=      5-min Rain = 0
KNH1 201824Z 21012KT 12/M03 A302 RMK A01 T01221027  RH  035%=      5-min Rain = 0
KNH1 201825Z 21013KT 12/M03 A302 RMK A01 T01221029  RH  035%=      5-min Rain = 0
KNH1 201826Z 22013KT 12/M03 A302 RMK A01 T01211033  RH  034%=      5-min Rain = 0
KNH1 201827Z 22013KT 12/M03 A302 RMK A01 T01191034  RH  034%=      5-min Rain = 0
KNH1 201828Z 22013KT 12/M04 A302 RMK A01 T01171035  RH  034%=      5-min Rain = 0
KNH1 201829Z 22011KT 12/M04 A302 RMK A01 T01161037  RH  034%=      5-min Rain = 0
KNH1 201830Z 22010KT 11/M04 A302 RMK A01 T01141035  RH  035%=      5-min Rain = 0
KNH1 201831Z 21012KT 12/M04 A302 RMK A01 T01151035  RH  035%=      5-min Rain = 0
KNH1 201832Z 20012KT 12/M04 A302 RMK A01 T01161035  RH  035%=      5-min Rain = 0
KNH1 201833Z 20011KT 12/M03 A302 RMK A01 T01161033  RH  035%=      5-min Rain = 0
KNH1 201834Z 22011KT 12/M03 A302 RMK A01 T01161032  RH  035%=      5-min Rain = 0
KNH1 201835Z 21011KT 12/M03 A302 RMK A01 T01161031  RH  036%=      5-min Rain = 0
KNH1 201836Z 22012KT 12/M03 A302 RMK A01 T01181032  RH  035%=      5-min Rain = 0
KNH1 201837Z 21012KT 12/M03 A302 RMK A01 T01181033  RH  035%=      5-min Rain = 0
KNH1 201838Z 21012KT 12/M03 A3019 RMK A01 T01171034  RH  035%=      5-min Rain = 0
KNH1 201839Z 22010KT 12/M03 A3019 RMK A01 T01171033  RH  035%=      5-min Rain = 0
KNH1 201840Z 22012KT 12/M03 A3019 RMK A01 T01171032  RH  035%=      5-min Rain = 0
KNH1 201841Z 23011KT 12/M03 A3019 RMK A01 T01191032  RH  035%=      5-min Rain = 0
KNH1 201842Z 21012KT 12/M03 A3019 RMK A01 T01201032  RH  034%=      5-min Rain = 0
KNH1 201843Z 21011KT 12/M03 A3019 RMK A01 T01181034  RH  034%=      5-min Rain = 0
KNH1 201844Z 21012KT 12/M03 A3019 RMK A01 T01171034  RH  035%=      5-min Rain = 0
KNH1 201845Z 21013KT 12/M03 A3019 RMK A01 T01191034  RH  034%=      5-min Rain = 0
KNH1 201846Z 21013KT 12/M04 A3019 RMK A01 T01181035  RH  034%=      5-min Rain = 0
KNH1 201847Z 22011KT 12/M04 A3019 RMK A01 T01181035  RH  034%=      5-min Rain = 0
KNH1 201848Z 22009KT 12/M03 A3019 RMK A01 T01201033  RH  034%=      5-min Rain = 0
KNH1 201849Z 21012KT 12/M03 A3019 RMK A01 T01211033  RH  034%=      5-min Rain = 0
KNH1 201850Z 22012KT 12/M03 A3019 RMK A01 T01241032  RH  034%=      5-min Rain = 0
KNH1 201851Z 22012KT 12/M03 A3019 RMK A01 T01241033  RH  033%=      5-min Rain = 0
KNH1 201852Z 22011KT 12/M03 A3019 RMK A01 T01231032  RH  034%=      5-min Rain = 0
KNH1 201853Z 23012KT 12/M03 A3018 RMK A01 T01231032  RH  034%=      5-min Rain = 0
KNH1 201854Z 22011KT 12/M03 A3018 RMK A01 T01241034  RH  033%=      5-min Rain = 0
KNH1 201855Z 20013KT 12/M03 A3018 RMK A01 T01231033  RH  034%=      5-min Rain = 0
KNH1 201856Z 20013KT 12/M04 A3018 RMK A01 T01221035  RH  033%=      5-min Rain = 0
KNH1 201857Z 21013KT 12/M04 A3018 RMK A01 T01221035  RH  033%=      5-min Rain = 0
KNH1 201858Z 21013KT 12/M03 A3018 RMK A01 T01211034  RH  034%=      5-min Rain = 0
KNH1 201859Z 22013KT 12/M03 A3018 RMK A01 T01191034  RH  034%=      5-min Rain = 0
KNH1 201900Z 22011KT 12/M04 A3018 RMK A01 T01191036  RH  034%=      5-min Rain = 0
KNH1 201901Z 20013KT 12/M03 A3018 RMK A01 T01201032  RH  035%=      5-min Rain = 0
KNH1 201902Z 20012KT 12/M03 A3018 RMK A01 T01211032  RH  034%=      5-min Rain = 0
KNH1 201903Z 21013KT 12/M03 A3018 RMK A01 T01211032  RH  034%=      5-min Rain = 0
KNH1 201904Z 21013KT 12/M03 A3018 RMK A01 T01221033  RH  034%=      5-min Rain = 0
KNH1 201905Z 20011KT 12/M03 A3018 RMK A01 T01211033  RH  034%=      5-min Rain = 0
KNH1 201906Z 20010KT 12/M03 A3018 RMK A01 T01191033  RH  034%=      5-min Rain = 0
KNH1 201907Z 22013KT 12/M03 A3018 RMK A01 T01201033  RH  034%=      5-min Rain = 0
KNH1 201908Z 21011KT 12/M03 A3018 RMK A01 T01201033  RH  034%=      5-min Rain = 0
KNH1 201909Z 22010KT 12/M03 A3018 RMK A01 T01221029  RH  035%=      5-min Rain = 0
KNH1 201910Z 22012KT 12/M03 A3017 RMK A01 T01241029  RH  034%=      5-min Rain = 0
KNH1 201911Z 22010KT 13/M03 A3017 RMK A01 T01251032  RH  033%=      5-min Rain = 0
KNH1 201912Z 21012KT 13/M03 A3017 RMK A01 T01261030  RH  034%=      5-min Rain = 0
KNH1 201913Z 20012KT 13/M03 A3017 RMK A01 T01251032  RH  033%=      5-min Rain = 0
KNH1 201914Z 22012KT 13/M03 A3017 RMK A01 T01261029  RH  034%=      5-min Rain = 0
KNH1 201915Z 21012KT 13/M03 A3017 RMK A01 T01301029  RH  033%=      5-min Rain = 0
KNH1 201916Z 21013KT 13/M03 A3017 RMK A01 T01291032  RH  032%=      5-min Rain = 0
KNH1 201917Z 21014KT 13/M03 A3017 RMK A01 T01281033  RH  032%=      5-min Rain = 0
KNH1 201918Z 22013KT 13/M03 A3017 RMK A01 T01271034  RH  033%=      5-min Rain = 0
KNH1 201919Z 21012KT 13/M03 A3017 RMK A01 T01261031  RH  033%=      5-min Rain = 0
KNH1 201920Z 21013KT 13/M03 A3017 RMK A01 T01281028  RH  034%=      5-min Rain = 0
KNH1 201921Z 22014KT 13/M03 A3017 RMK A01 T01301029  RH  033%=      5-min Rain = 0
KNH1 201922Z 23012KT 13/M03 A3016 RMK A01 T01291032  RH  033%=      5-min Rain = 0
KNH1 201923Z 22012KT 13/M03 A3016 RMK A01 T01261032  RH  033%=      5-min Rain = 0
KNH1 201924Z 22014KT 13/M03 A3016 RMK A01 T01261031  RH  033%=      5-min Rain = 0
KNH1 201925Z 21012KT 13/M03 A3016 RMK A01 T01271033  RH  033%=      5-min Rain = 0
KNH1 201926Z 22011KT 13/M03 A3016 RMK A01 T01251033  RH  033%=      5-min Rain = 0
KNH1 201927Z 22012KT 13/M03 A3016 RMK A01 T01261030  RH  034%=      5-min Rain = 0
KNH1 201928Z 23013KT 13/M03 A3016 RMK A01 T01271030  RH  033%=      5-min Rain = 0
KNH1 201929Z 22012KT 13/M03 A3016 RMK A01 T01281028  RH  034%=      5-min Rain = 0
KNH1 201930Z 21011KT 13/M03 A3016 RMK A01 T01301028  RH  033%=      5-min Rain = 0
KNH1 201931Z 21011KT 13/M03 A3016 RMK A01 T01291029  RH  033%=      5-min Rain = 0
KNH1 201932Z 21013KT 13/M03 A3016 RMK A01 T01301030  RH  033%=      5-min Rain = 0
KNH1 201933Z 20011KT 13/M03 A3016 RMK A01 T01301030  RH  033%=      5-min Rain = 0
KNH1 201934Z 21013KT 13/M03 A3015 RMK A01 T01311030  RH  033%=      5-min Rain = 0
KNH1 201935Z 21014KT 13/M03 A3015 RMK A01 T01311031  RH  032%=      5-min Rain = 0
KNH1 201936Z 21013KT 13/M03 A3015 RMK A01 T01301033  RH  032%=      5-min Rain = 0
KNH1 201937Z 21011KT 13/M03 A3015 RMK A01 T01281033  RH  033%=      5-min Rain = 0
KNH1 201938Z 21009KT 13/M03 A3015 RMK A01 T01291030  RH  033%=      5-min Rain = 0
KNH1 201939Z 20011KT 13/M03 A3015 RMK A01 T01331026  RH  033%=      5-min Rain = 0
KNH1 201940Z 20012KT 14/M03 A3015 RMK A01 T01371028  RH  032%=      5-min Rain = 0
KNH1 201941Z 21012KT 14/M03 A3015 RMK A01 T01371029  RH  031%=      5-min Rain = 0
KNH1 201942Z 21013KT 14/M03 A3015 RMK A01 T01391029  RH  031%=      5-min Rain = 0
KNH1 201943Z 20012KT 14/M03 A3015 RMK A01 T01381030  RH  031%=      5-min Rain = 0
KNH1 201944Z 21012KT 14/M03 A3014 RMK A01 T01391028  RH  031%=      5-min Rain = 0
KNH1 201945Z 21012KT 14/M03 A3014 RMK A01 T01411028  RH  031%=      5-min Rain = 0
KNH1 201946Z 21014KT 14/M03 A3014 RMK A01 T01431032  RH  030%=      5-min Rain = 0
KNH1 201947Z 22012KT 15/M03 A3014 RMK A01 T01451030  RH  030%=      5-min Rain = 0
KNH1 201948Z 21011KT 15/M03 A3014 RMK A01 T01481029  RH  029%=      5-min Rain = 0
KNH1 201949Z 22011KT 15/M03 A3014 RMK A01 T01471029  RH  030%=      5-min Rain = 0
KNH1 201950Z 22011KT 15/M03 A3014 RMK A01 T01471029  RH  029%=      5-min Rain = 0
KNH1 201951Z 20010G15KT 15/M03 A3014 RMK A01 T01461031  RH  029%=      5-min Rain = 0
KNH1 201952Z 20013KT 15/M03 A3014 RMK A01 T01471028  RH  030%=      5-min Rain = 0
KNH1 201953Z 21011KT 15/M03 A3014 RMK A01 T01481030  RH  029%=      5-min Rain = 0
KNH1 201954Z 20012KT 15/M03 A3014 RMK A01 T01481030  RH  029%=      5-min Rain = 0
KNH1 201955Z 21011KT 15/M03 A3013 RMK A01 T01491029  RH  029%=      5-min Rain = 0
KNH1 201956Z 22011KT 15/M03 A3013 RMK A01 T01541026  RH  029%=      5-min Rain = 0
KNH1 201957Z 20012KT 15/M03 A3013 RMK A01 T01531031  RH  028%=      5-min Rain = 0
KNH1 201958Z 21014G19KT 15/M04 A3013 RMK A01 T01501035  RH  028%=      5-min Rain = 0
KNH1 201959Z 22014KT 15/M04 A3013 RMK A01 T01501035  RH  028%=      5-min Rain = 0
KNH1 202000Z 22013KT 15/M03 A3013 RMK A01 T01511034  RH  028%=      5-min Rain = 0
KNH1 202001Z 22011KT 15/M03 A3013 RMK A01 T01511032  RH  028%=      5-min Rain = 0
KNH1 202002Z 22014KT 15/M03 A3013 RMK A01 T01521030  RH  028%=      5-min Rain = 0
KNH1 202003Z 21012KT 15/M03 A3013 RMK A01 T01531029  RH  028%=      5-min Rain = 0
KNH1 202004Z 21013KT 15/M03 A3013 RMK A01 T01541032  RH  028%=      5-min Rain = 0
KNH1 202005Z 21011KT 15/M03 A3013 RMK A01 T01531033  RH  028%=      5-min Rain = 0
KNH1 202006Z 22013KT 15/M04 A3013 RMK A01 T01531036  RH  027%=      5-min Rain = 0
KNH1 202007Z 23015KT 16/M04 A3013 RMK A01 T01561042  RH  025%=      5-min Rain = 0
KNH1 202008Z 22012KT 16/M05 A3013 RMK A01 T01551045  RH  025%=      5-min Rain = 0
KNH1 202009Z 22013KT 15/M04 A3013 RMK A01 T01531044  RH  026%=      5-min Rain = 0
KNH1 202010Z 21011KT 15/M04 A3013 RMK A01 T01541040  RH  026%=      5-min Rain = 0
KNH1 202011Z 21011KT 16/M04 A3013 RMK A01 T01561038  RH  026%=      5-min Rain = 0
KNH1 202012Z 21013KT 16/M04 A3013 RMK A01 T01571039  RH  026%=      5-min Rain = 0
KNH1 202013Z 21015KT 16/M04 A3013 RMK A01 T01551043  RH  025%=      5-min Rain = 0
KNH1 202014Z 21014KT 16/M04 A3012 RMK A01 T01581044  RH  025%=      5-min Rain = 0
KNH1 202015Z 21016KT 16/M04 A3012 RMK A01 T01571044  RH  025%=      5-min Rain = 0
KNH1 202016Z 21018KT 16/M05 A3012 RMK A01 T01581045  RH  024%=      5-min Rain = 0
KNH1 202017Z 21014KT 16/M05 A3012 RMK A01 T01581047  RH  024%=      5-min Rain = 0
KNH1 202018Z 23013KT 16/M04 A3012 RMK A01 T01581044  RH  025%=      5-min Rain = 0
KNH1 202019Z 22013KT 16/M04 A3012 RMK A01 T01581042  RH  025%=      5-min Rain = 0
KNH1 202020Z 22014KT 16/M04 A3012 RMK A01 T01591041  RH  025%=      5-min Rain = 0
KNH1 202021Z 23013KT 16/M04 A3012 RMK A01 T01611043  RH  024%=      5-min Rain = 0
KNH1 202022Z 22015G20KT 16/M04 A3012 RMK A01 T01601043  RH  024%=      5-min Rain = 0
KNH1 202023Z 22016KT 16/M05 A3012 RMK A01 T01601045  RH  024%=      5-min Rain = 0
KNH1 202024Z 23013KT 16/M05 A3012 RMK A01 T01571046  RH  024%=      5-min Rain = 0
KNH1 202025Z 22014KT 16/M04 A3012 RMK A01 T01581042  RH  025%=      5-min Rain = 0
KNH1 202026Z 22014KT 16/M04 A3012 RMK A01 T01591044  RH  024%=      5-min Rain = 0
KNH1 202027Z 21015KT 16/M05 A3012 RMK A01 T01591047  RH  024%=      5-min Rain = 0
KNH1 202028Z 22013KT 16/M05 A3011 RMK A01 T01591046  RH  024%=      5-min Rain = 0
KNH1 202029Z 22011KT 16/M04 A3011 RMK A01 T01591043  RH  025%=      5-min Rain = 0
KNH1 202030Z 22016KT 16/M04 A3011 RMK A01 T01611042  RH  024%=      5-min Rain = 0
KNH1 202031Z 21014KT 16/M05 A3011 RMK A01 T01601046  RH  024%=      5-min Rain = 0
KNH1 202032Z 22015KT 16/M05 A3011 RMK A01 T01581047  RH  024%=      5-min Rain = 0
KNH1 202033Z 22015KT 16/M05 A3011 RMK A01 T01591047  RH  024%=      5-min Rain = 0
KNH1 202034Z 20015KT 16/M04 A3011 RMK A01 T01591044  RH  025%=      5-min Rain = 0
KNH1 202035Z 20014KT 16/M04 A3011 RMK A01 T01591040  RH  025%=      5-min Rain = 0
KNH1 202036Z 20013KT 16/M04 A3011 RMK A01 T01621037  RH  025%=      5-min Rain = 0
KNH1 202037Z 20013KT 16/M04 A3011 RMK A01 T01621039  RH  025%=      5-min Rain = 0
KNH1 202038Z 20012KT 16/M04 A3011 RMK A01 T01611040  RH  025%=      5-min Rain = 0
KNH1 202039Z 22013KT 16/M04 A3011 RMK A01 T01621039  RH  025%=      5-min Rain = 0
KNH1 202040Z 21015KT 16/M04 A3011 RMK A01 T01631043  RH  024%=      5-min Rain = 0
KNH1 202041Z 21014KT 16/M05 A3011 RMK A01 T01611045  RH  024%=      5-min Rain = 0
KNH1 202042Z 21013KT 16/M04 A3011 RMK A01 T01611043  RH  024%=      5-min Rain = 0
KNH1 202043Z 21014KT 16/M04 A3011 RMK A01 T01611043  RH  024%=      5-min Rain = 0
KNH1 202044Z 20014KT 16/M04 A3011 RMK A01 T01621042  RH  024%=      5-min Rain = 0
KNH1 202045Z 21012KT 16/M04 A3011 RMK A01 T01631044  RH  024%=      5-min Rain = 0
KNH1 202046Z 21013KT 17/M05 A3011 RMK A01 T01661048  RH  023%=      5-min Rain = 0
KNH1 202047Z 21012KT 16/M05 A3011 RMK A01 T01641047  RH  023%=      5-min Rain = 0
KNH1 202048Z 21012KT 16/M04 A3011 RMK A01 T01631041  RH  024%=      5-min Rain = 0
KNH1 202049Z 21016KT 16/M04 A3011 RMK A01 T01631042  RH  024%=      5-min Rain = 0
KNH1 202050Z 21013KT 16/M05 A3011 RMK A01 T01631045  RH  024%=      5-min Rain = 0
KNH1 202051Z 22014KT 16/M05 A3011 RMK A01 T01631045  RH  024%=      5-min Rain = 0
KNH1 202052Z 22013KT 17/M05 A3011 RMK A01 T01651047  RH  023%=      5-min Rain = 0
KNH1 202053Z 22012KT 17/M05 A3011 RMK A01 T01661047  RH  023%=      5-min Rain = 0
KNH1 202054Z 22013KT 17/M05 A3011 RMK A01 T01651051  RH  022%=      5-min Rain = 0
KNH1 202055Z 23013KT 16/M06 A3011 RMK A01 T01641057  RH  021%=      5-min Rain = 0
KNH1 202056Z 23013KT 17/M06 A3011 RMK A01 T01651056  RH  021%=      5-min Rain = 0
KNH1 202057Z 23013KT 16/M06 A3011 RMK A01 T01641057  RH  021%=      5-min Rain = 0
KNH1 202058Z 23016KT 16/M06 A301 RMK A01 T01641055  RH  022%=      5-min Rain = 0
KNH1 202059Z 21014KT 17/M05 A3011 RMK A01 T01651054  RH  022%=      5-min Rain = 0
KNH1 202100Z 22013KT 17/M05 A301 RMK A01 T01651054  RH  022%=      5-min Rain = 0
KNH1 202101Z 21011KT 16/M05 A301 RMK A01 T01641054  RH  022%=      5-min Rain = 0
KNH1 202102Z 22013KT 17/M05 A301 RMK A01 T01651053  RH  022%=      5-min Rain = 0
KNH1 202103Z 24012KT 17/M05 A301 RMK A01 T01671051  RH  022%=      5-min Rain = 0
KNH1 202104Z 22012KT 17/M06 A301 RMK A01 T01651055  RH  022%=      5-min Rain = 0
KNH1 202105Z 20011KT 17/M05 A301 RMK A01 T01651052  RH  022%=      5-min Rain = 0
KNH1 202106Z 21015KT 17/M06 A301 RMK A01 T01671056  RH  021%=      5-min Rain = 0
KNH1 202107Z 22015KT 17/M06 A301 RMK A01 T01671057  RH  021%=      5-min Rain = 0
KNH1 202108Z 21015KT 17/M06 A301 RMK A01 T01681058  RH  021%=      5-min Rain = 0
KNH1 202109Z 21013KT 17/M06 A301 RMK A01 T01681059  RH  021%=      5-min Rain = 0
KNH1 202110Z 22014KT 17/M06 A301 RMK A01 T01661057  RH  021%=      5-min Rain = 0
KNH1 202111Z 22012KT 16/M06 A301 RMK A01 T01641060  RH  021%=      5-min Rain = 0
KNH1 202112Z 23012KT 16/M06 A301 RMK A01 T01641058  RH  021%=      5-min Rain = 0
KNH1 202113Z 23014KT 17/M06 A301 RMK A01 T01651058  RH  021%=      5-min Rain = 0
KNH1 202114Z 23013KT 17/M06 A301 RMK A01 T01681055  RH  021%=      5-min Rain = 0
KNH1 202115Z 22012KT 17/M06 A301 RMK A01 T01681056  RH  021%=      5-min Rain = 0
KNH1 202116Z 21011KT 17/M05 A301 RMK A01 T01681054  RH  021%=      5-min Rain = 0
KNH1 202117Z 21012G17KT 17/M06 A3009 RMK A01 T01691057  RH  021%=      5-min Rain = 0
KNH1 202118Z 23013KT 17/M06 A3009 RMK A01 T01691055  RH  021%=      5-min Rain = 0
KNH1 202119Z 22014KT 17/M06 A3009 RMK A01 T01701056  RH  021%=      5-min Rain = 0
KNH1 202120Z 22012KT 17/M06 A3009 RMK A01 T01701057  RH  021%=      5-min Rain = 0
KNH1 202121Z 23011KT 17/M05 A3009 RMK A01 T01721053  RH  021%=      5-min Rain = 0
KNH1 202122Z 22011KT 17/M05 A3009 RMK A01 T01731053  RH  021%=      5-min Rain = 0
KNH1 202123Z 20012KT 17/M06 A3009 RMK A01 T01741055  RH  020%=      5-min Rain = 0
KNH1 202124Z 20011KT 17/M06 A3009 RMK A01 T01731057  RH  020%=      5-min Rain = 0
KNH1 202125Z 22014KT 18/M06 A3009 RMK A01 T01751056  RH  020%=      5-min Rain = 0
KNH1 202126Z 22013KT 17/M06 A3009 RMK A01 T01731058  RH  020%=      5-min Rain = 0
KNH1 202127Z 22011KT 17/M06 A3009 RMK A01 T01721057  RH  020%=      5-min Rain = 0
KNH1 202128Z 22012KT 17/M06 A3009 RMK A01 T01721058  RH  020%=      5-min Rain = 0
KNH1 202129Z 22012KT 17/M06 A3009 RMK A01 T01721059  RH  020%=      5-min Rain = 0
KNH1 202130Z 21011KT 17/M06 A3009 RMK A01 T01721060  RH  020%=      5-min Rain = 0
KNH1 202131Z 21014KT 17/M06 A3009 RMK A01 T01741058  RH  020%=      5-min Rain = 0
KNH1 202132Z 21013KT 18/M06 A3009 RMK A01 T01761060  RH  019%=      5-min Rain = 0
KNH1 202133Z 21014KT 18/M06 A3009 RMK A01 T01751062  RH  019%=      5-min Rain = 0
KNH1 202134Z 21013KT 17/M06 A3009 RMK A01 T01731063  RH  019%=      5-min Rain = 0
KNH1 202135Z 20010KT 17/M06 A3009 RMK A01 T01711064  RH  019%=      5-min Rain = 0
KNH1 202136Z 21011KT 17/M06 A3009 RMK A01 T01711062  RH  020%=      5-min Rain = 0
KNH1 202137Z 21013KT 17/M06 A3009 RMK A01 T01731060  RH  020%=      5-min Rain = 0
KNH1 202138Z 21013KT 17/M06 A3009 RMK A01 T01721062  RH  020%=      5-min Rain = 0
KNH1 202139Z 21012KT 17/M06 A3009 RMK A01 T01721061  RH  020%=      5-min Rain = 0
KNH1 202140Z 21010KT 17/M06 A3009 RMK A01 T01721059  RH  020%=      5-min Rain = 0
KNH1 202141Z 21014KT 17/M06 A3009 RMK A01 T01741060  RH  020%=      5-min Rain = 0
KNH1 202142Z 20012KT 18/M06 A3009 RMK A01 T01751063  RH  019%=      5-min Rain = 0
KNH1 202143Z 20014KT 18/M06 A3009 RMK A01 T01751063  RH  019%=      5-min Rain = 0
KNH1 202144Z 21013KT 18/M06 A3009 RMK A01 T01761063  RH  019%=      5-min Rain = 0
KNH1 202145Z 20013KT 18/M06 A3009 RMK A01 T01771061  RH  019%=      5-min Rain = 0
KNH1 202146Z 21013KT 18/M06 A3009 RMK A01 T01771061  RH  019%=      5-min Rain = 0
KNH1 202147Z 22014KT 18/M06 A3009 RMK A01 T01771062  RH  019%=      5-min Rain = 0
KNH1 202148Z 22011KT 18/M06 A3009 RMK A01 T01781061  RH  019%=      5-min Rain = 0
KNH1 202149Z 22010KT 18/M06 A3009 RMK A01 T01771063  RH  019%=      5-min Rain = 0
KNH1 202150Z 21011KT 18/M06 A3009 RMK A01 T01761062  RH  019%=      5-min Rain = 0
KNH1 202151Z 22012KT 18/M06 A3009 RMK A01 T01761061  RH  019%=      5-min Rain = 0
KNH1 202152Z 22011KT 18/M06 A3009 RMK A01 T01761062  RH  019%=      5-min Rain = 0
KNH1 202153Z 22011KT 18/M06 A3009 RMK A01 T01761061  RH  019%=      5-min Rain = 0
KNH1 202154Z 23013KT 18/M06 A3009 RMK A01 T01781060  RH  019%=      5-min Rain = 0
KNH1 202155Z 22014KT 18/M06 A3009 RMK A01 T01801061  RH  019%=      5-min Rain = 0
KNH1 202156Z 22014KT 18/M07 A3009 RMK A01 T01791066  RH  018%=      5-min Rain = 0
KNH1 202157Z 21012KT 18/M07 A3009 RMK A01 T01771068  RH  018%=      5-min Rain = 0
KNH1 202158Z 21011KT 18/M07 A3009 RMK A01 T01761067  RH  018%=      5-min Rain = 0
KNH1 202159Z 22011KT 18/M07 A3009 RMK A01 T01771066  RH  018%=      5-min Rain = 0
KNH1 202200Z 21012KT 18/M06 A3009 RMK A01 T01781064  RH  019%=      5-min Rain = 0
KNH1 202201Z 20014KT 18/M07 A3009 RMK A01 T01791066  RH  018%=      5-min Rain = 0
KNH1 202202Z 20013KT 18/M07 A3009 RMK A01 T01781067  RH  018%=      5-min Rain = 0
KNH1 202203Z 21014KT 18/M07 A3009 RMK A01 T01781066  RH  018%=      5-min Rain = 0
KNH1 202204Z 21013KT 18/M07 A3009 RMK A01 T01771066  RH  018%=      5-min Rain = 0
KNH1 202205Z 22013KT 18/M07 A3009 RMK A01 T01781067  RH  018%=      5-min Rain = 0
KNH1 202206Z 20012KT 18/M07 A3009 RMK A01 T01781066  RH  018%=      5-min Rain = 0
KNH1 202207Z 20014KT 18/M06 A3009 RMK A01 T01791064  RH  019%=      5-min Rain = 0
KNH1 202208Z 21015KT 18/M07 A3008 RMK A01 T01801068  RH  018%=      5-min Rain = 0
KNH1 202209Z 22011KT 18/M07 A3008 RMK A01 T01791066  RH  018%=      5-min Rain = 0
KNH1 202210Z 22013KT 18/M07 A3008 RMK A01 T01801065  RH  018%=      5-min Rain = 0
KNH1 202211Z 21013KT 18/M07 A3008 RMK A01 T01791065  RH  018%=      5-min Rain = 0
KNH1 202212Z 22011KT 18/M07 A3008 RMK A01 T01781067  RH  018%=      5-min Rain = 0
KNH1 202213Z 21012KT 18/M07 A3008 RMK A01 T01771066  RH  018%=      5-min Rain = 0
KNH1 202214Z 20011KT 18/M07 A3008 RMK A01 T01771067  RH  018%=      5-min Rain = 0
KNH1 202215Z 20015G20KT 18/M07 A3008 RMK A01 T01781065  RH  018%=      5-min Rain = 0
KNH1 202216Z 21014KT 18/M07 A3008 RMK A01 T01791066  RH  018%=      5-min Rain = 0
KNH1 202217Z 21012KT 18/M07 A3008 RMK A01 T01791068  RH  018%=      5-min Rain = 0
KNH1 202218Z 22013KT 18/M07 A3008 RMK A01 T01771068  RH  018%=      5-min Rain = 0
KNH1 202219Z 22012KT 18/M07 A3008 RMK A01 T01771067  RH  018%=      5-min Rain = 0
KNH1 202220Z 21012KT 18/M07 A3008 RMK A01 T01771067  RH  018%=      5-min Rain = 0
KNH1 202221Z 20013KT 18/M07 A3008 RMK A01 T01761067  RH  018%=      5-min Rain = 0
KNH1 202222Z 20013KT 18/M07 A3008 RMK A01 T01761067  RH  018%=      5-min Rain = 0
KNH1 202223Z 20013KT 18/M07 A3008 RMK A01 T01751068  RH  018%=      5-min Rain = 0
KNH1 202224Z 20013KT 18/M07 A3008 RMK A01 T01761067  RH  018%=      5-min Rain = 0
KNH1 202225Z 21014KT 18/M07 A3008 RMK A01 T01771068  RH  018%=      5-min Rain = 0
KNH1 202226Z 21012KT 18/M07 A3008 RMK A01 T01771068  RH  018%=      5-min Rain = 0
KNH1 202227Z 21011KT 18/M07 A3008 RMK A01 T01771066  RH  018%=      5-min Rain = 0
KNH1 202228Z 22012KT 18/M07 A3008 RMK A01 T01781070  RH  018%=      5-min Rain = 0
KNH1 202229Z 21012KT 18/M07 A3008 RMK A01 T01781069  RH  018%=      5-min Rain = 0
KNH1 202230Z 22013KT 18/M07 A3008 RMK A01 T01771067  RH  018%=      5-min Rain = 0
KNH1 202231Z 22012KT 18/M07 A3008 RMK A01 T01781066  RH  018%=      5-min Rain = 0
KNH1 202232Z 21013KT 18/M07 A3008 RMK A01 T01791065  RH  018%=      5-min Rain = 0
KNH1 202233Z 20013KT 18/M07 A3008 RMK A01 T01771066  RH  018%=      5-min Rain = 0
KNH1 202234Z 20012KT 18/M07 A3008 RMK A01 T01761068  RH  018%=      5-min Rain = 0
KNH1 202235Z 20015KT 18/M07 A3008 RMK A01 T01751067  RH  019%=      5-min Rain = 0
KNH1 202236Z 22012KT 18/M07 A3008 RMK A01 T01751066  RH  019%=      5-min Rain = 0
KNH1 202237Z 22011KT 18/M07 A3008 RMK A01 T01751066  RH  019%=      5-min Rain = 0
KNH1 202238Z 21013KT 18/M07 A3008 RMK A01 T01751067  RH  019%=      5-min Rain = 0
KNH1 202239Z 21012KT 18/M07 A3008 RMK A01 T01751069  RH  018%=      5-min Rain = 0
KNH1 202240Z 20014KT 17/M07 A3008 RMK A01 T01741068  RH  018%=      5-min Rain = 0
KNH1 202241Z 20013KT 17/M07 A3008 RMK A01 T01741068  RH  018%=      5-min Rain = 0
KNH1 202242Z 21013KT 17/M07 A3008 RMK A01 T01741067  RH  019%=      5-min Rain = 0
KNH1 202243Z 21013KT 17/M07 A3008 RMK A01 T01741068  RH  018%=      5-min Rain = 0
KNH1 202244Z 21011KT 18/M07 A3008 RMK A01 T01751067  RH  019%=      5-min Rain = 0
KNH1 202245Z 20014KT 18/M07 A3008 RMK A01 T01761068  RH  018%=      5-min Rain = 0
KNH1 202246Z 21013KT 18/M07 A3008 RMK A01 T01761068  RH  018%=      5-min Rain = 0
KNH1 202247Z 21012KT 18/M07 A3008 RMK A01 T01751068  RH  018%=      5-min Rain = 0
KNH1 202248Z 21012KT 18/M07 A3008 RMK A01 T01751069  RH  018%=      5-min Rain = 0
KNH1 202249Z 21013KT 17/M07 A3008 RMK A01 T01741069  RH  018%=      5-min Rain = 0
KNH1 202250Z 21011KT 17/M07 A3008 RMK A01 T01731069  RH  018%=      5-min Rain = 0
KNH1 202251Z 21011KT 17/M07 A3008 RMK A01 T01731067  RH  019%=      5-min Rain = 0
KNH1 202252Z 20012KT 17/M07 A3008 RMK A01 T01741068  RH  019%=      5-min Rain = 0
KNH1 202253Z 19014KT 17/M07 A3008 RMK A01 T01731070  RH  018%=      5-min Rain = 0
KNH1 202254Z 20014KT 17/M07 A3008 RMK A01 T01721070  RH  018%=      5-min Rain = 0
KNH1 202255Z 21015KT 17/M07 A3008 RMK A01 T01721071  RH  018%=      5-min Rain = 0
KNH1 202256Z 21014KT 17/M07 A3008 RMK A01 T01711071  RH  018%=      5-min Rain = 0
KNH1 202257Z 21012KT 17/M07 A3008 RMK A01 T01711070  RH  019%=      5-min Rain = 0
KNH1 202258Z 20010KT 17/M07 A3008 RMK A01 T01701071  RH  019%=      5-min Rain = 0
KNH1 202259Z 20011KT 17/M07 A3008 RMK A01 T01701070  RH  019%=      5-min Rain = 0
KNH1 202300Z 21010KT 17/M07 A3008 RMK A01 T01701069  RH  019%=      5-min Rain = 0
KNH1 202301Z 21012KT 17/M07 A3008 RMK A01 T01701067  RH  019%=      5-min Rain = 0
KNH1 202302Z 21013KT 17/M07 A3008 RMK A01 T01691069  RH  019%=      5-min Rain = 0
KNH1 202303Z 21011KT 17/M07 A3008 RMK A01 T01681069  RH  019%=      5-min Rain = 0
KNH1 202304Z 20012KT 17/M07 A3008 RMK A01 T01671070  RH  019%=      5-min Rain = 0
KNH1 202305Z 20011KT 17/M07 A3008 RMK A01 T01661070  RH  019%=      5-min Rain = 0
KNH1 202306Z 20011KT 17/M07 A3008 RMK A01 T01661070  RH  019%=      5-min Rain = 0
KNH1 202307Z 21012KT 17/M07 A3008 RMK A01 T01651070  RH  019%=      5-min Rain = 0
KNH1 202308Z 20011KT 16/M07 A3008 RMK A01 T01641070  RH  019%=      5-min Rain = 0
KNH1 202309Z 21010KT 16/M07 A3008 RMK A01 T01631070  RH  020%=      5-min Rain = 0
KNH1 202310Z 21012KT 16/M07 A3008 RMK A01 T01631069  RH  020%=      5-min Rain = 0
KNH1 202311Z 21011KT 16/M07 A3008 RMK A01 T01631069  RH  020%=      5-min Rain = 0
KNH1 202312Z 20011KT 16/M07 A3008 RMK A01 T01621069  RH  020%=      5-min Rain = 0
KNH1 202313Z 21010KT 16/M07 A3008 RMK A01 T01611071  RH  020%=      5-min Rain = 0
KNH1 202314Z 21010KT 16/M07 A3008 RMK A01 T01601071  RH  020%=      5-min Rain = 0
KNH1 202315Z 21010KT 16/M07 A3008 RMK A01 T01601069  RH  020%=      5-min Rain = 0
KNH1 202316Z 20010KT 16/M07 A3008 RMK A01 T01601069  RH  020%=      5-min Rain = 0
KNH1 202317Z 21009KT 16/M07 A3008 RMK A01 T01601070  RH  020%=      5-min Rain = 0
KNH1 202318Z 20009KT 16/M07 A3008 RMK A01 T01591069  RH  020%=      5-min Rain = 0
KNH1 202319Z 21010KT 16/M07 A3008 RMK A01 T01581069  RH  020%=      5-min Rain = 0
KNH1 202320Z 20010KT 16/M07 A3008 RMK A01 T01581069  RH  020%=      5-min Rain = 0
KNH1 202321Z 20010KT 16/M07 A3008 RMK A01 T01581069  RH  020%=      5-min Rain = 0
KNH1 202322Z 20010KT 16/M07 A3008 RMK A01 T01571070  RH  020%=      5-min Rain = 0
KNH1 202323Z 20011KT 16/M07 A3008 RMK A01 T01561070  RH  020%=      5-min Rain = 0
KNH1 202324Z 20011KT 16/M07 A3008 RMK A01 T01561070  RH  020%=      5-min Rain = 0
KNH1 202325Z 21011KT 16/M07 A3008 RMK A01 T01551071  RH  020%=      5-min Rain = 0
KNH1 202326Z 21010KT 16/M07 A3008 RMK A01 T01551070  RH  021%=      5-min Rain = 0
KNH1 202327Z 21010KT 15/M07 A3008 RMK A01 T01541070  RH  021%=      5-min Rain = 0
KNH1 202328Z 21010KT 15/M07 A3008 RMK A01 T01531070  RH  021%=      5-min Rain = 0
KNH1 202329Z 21009KT 15/M07 A3008 RMK A01 T01521070  RH  021%=      5-min Rain = 0
KNH1 202330Z 21010KT 15/M07 A3008 RMK A01 T01521071  RH  021%=      5-min Rain = 0
KNH1 202331Z 21010KT 15/M07 A3008 RMK A01 T01521072  RH  021%=      5-min Rain = 0
KNH1 202332Z 21009KT 15/M07 A3008 RMK A01 T01511073  RH  021%=      5-min Rain = 0
KNH1 202333Z 20009KT 15/M07 A3008 RMK A01 T01501072  RH  021%=      5-min Rain = 0
KNH1 202334Z 20009KT 15/M07 A3008 RMK A01 T01491073  RH  021%=      5-min Rain = 0
KNH1 202335Z 20009KT 15/M07 A3008 RMK A01 T01481071  RH  021%=      5-min Rain = 0
KNH1 202336Z 20009KT 15/M07 A3008 RMK A01 T01471071  RH  022%=      5-min Rain = 0
KNH1 202337Z 20010KT 15/M07 A3008 RMK A01 T01461071  RH  022%=      5-min Rain = 0
KNH1 202338Z 20011KT 15/M07 A3008 RMK A01 T01461071  RH  022%=      5-min Rain = 0
KNH1 202339Z 20010KT 15/M07 A3008 RMK A01 T01461071  RH  022%=      5-min Rain = 0
KNH1 202340Z 20010KT 15/M07 A3008 RMK A01 T01451071  RH  022%=      5-min Rain = 0
KNH1 202341Z 20009KT 14/M07 A3008 RMK A01 T01441071  RH  022%=      5-min Rain = 0
KNH1 202342Z 20010KT 14/M07 A3008 RMK A01 T01431073  RH  022%=      5-min Rain = 0
KNH1 202343Z 20010KT 14/M07 A3008 RMK A01 T01431072  RH  022%=      5-min Rain = 0
KNH1 202344Z 20010KT 14/M07 A3008 RMK A01 T01421071  RH  022%=      5-min Rain = 0
KNH1 202345Z 20010KT 14/M07 A3007 RMK A01 T01411071  RH  022%=      5-min Rain = 0
KNH1 202346Z 20010KT 14/M07 A3007 RMK A01 T01411072  RH  022%=      5-min Rain = 0
KNH1 202347Z 20010KT 14/M07 A3007 RMK A01 T01411071  RH  022%=      5-min Rain = 0
KNH1 202348Z 20010KT 14/M07 A3007 RMK A01 T01401070  RH  023%=      5-min Rain = 0
KNH1 202349Z 20009KT 14/M07 A3007 RMK A01 T01391071  RH  023%=      5-min Rain = 0
KNH1 202350Z 20010KT 14/M07 A3007 RMK A01 T01381072  RH  023%=      5-min Rain = 0
KNH1 202351Z 20010KT 14/M07 A3007 RMK A01 T01371073  RH  023%=      5-min Rain = 0
KNH1 202352Z 20011KT 14/M07 A3007 RMK A01 T01351073  RH  023%=      5-min Rain = 0
KNH1 202353Z 20010KT 13/M07 A3007 RMK A01 T01341072  RH  023%=      5-min Rain = 0
KNH1 202354Z 20011KT 13/M07 A3007 RMK A01 T01341071  RH  023%=      5-min Rain = 0
KNH1 202355Z 20011KT 13/M07 A3007 RMK A01 T01341071  RH  024%=      5-min Rain = 0
KNH1 202356Z 20011KT 13/M07 A3007 RMK A01 T01331070  RH  024%=      5-min Rain = 0
KNH1 202357Z 20011KT 13/M07 A3007 RMK A01 T01321071  RH  024%=      5-min Rain = 0
KNH1 202358Z 20011KT 13/M07 A3007 RMK A01 T01321070  RH  024%=      5-min Rain = 0
KNH1 202359Z 20011KT 13/M07 A3007 RMK A01 T01311072  RH  024%=      5-min Rain = 0
KNH1 210000Z 20011KT 13/M07 A3007 RMK A01 T01301073  RH  024%=      5-min Rain = 0
KNH1 210001Z 20011KT 13/M07 A3007 RMK A01 T01291073  RH  024%=      5-min Rain = 0
KNH1 210002Z 20011KT 13/M07 A3007 RMK A01 T01291072  RH  024%=      5-min Rain = 0
KNH1 210003Z 20011KT 13/M07 A3007 RMK A01 T01271073  RH  024%=      5-min Rain = 0
KNH1 210004Z 20011KT 13/M07 A3007 RMK A01 T01261073  RH  024%=      5-min Rain = 0
KNH1 210005Z 20010KT 13/M07 A3007 RMK A01 T01261072  RH  024%=      5-min Rain = 0
KNH1 210006Z 20010KT 13/M07 A3007 RMK A01 T01251072  RH  025%=      5-min Rain = 0
KNH1 210007Z 19009KT 12/M07 A3006 RMK A01 T01241072  RH  025%=      5-min Rain = 0
KNH1 210008Z 20009KT 12/M07 A3006 RMK A01 T01231072  RH  025%=      5-min Rain = 0
KNH1 210009Z 20009KT 12/M07 A3007 RMK A01 T01221071  RH  025%=      5-min Rain = 0
KNH1 210010Z 20010KT 12/M07 A3007 RMK A01 T01211070  RH  026%=      5-min Rain = 0
KNH1 210011Z 20009KT 12/M07 A3007 RMK A01 T01201070  RH  026%=      5-min Rain = 0
KNH1 210012Z 20009KT 12/M07 A3007 RMK A01 T01191070  RH  026%=      5-min Rain = 0
KNH1 210013Z 20009KT 12/M07 A3007 RMK A01 T01181070  RH  026%=      5-min Rain = 0
KNH1 210014Z 20009KT 12/M07 A3007 RMK A01 T01171070  RH  026%=      5-min Rain = 0
KNH1 210015Z 19009KT 12/M07 A3007 RMK A01 T01171070  RH  026%=      5-min Rain = 0
KNH1 210016Z 20009KT 12/M07 A3007 RMK A01 T01171070  RH  026%=      5-min Rain = 0
KNH1 210017Z 20009KT 12/M07 A3007 RMK A01 T01161071  RH  026%=      5-min Rain = 0
KNH1 210018Z 20009KT 12/M07 A3007 RMK A01 T01161071  RH  026%=      5-min Rain = 0
KNH1 210019Z 19009KT 12/M07 A3007 RMK A01 T01151071  RH  027%=      5-min Rain = 0
KNH1 210020Z 20009KT 11/M07 A3007 RMK A01 T01141071  RH  027%=      5-min Rain = 0
KNH1 210021Z 19009KT 11/M07 A3007 RMK A01 T01141071  RH  027%=      5-min Rain = 0
KNH1 210022Z 19009KT 11/M07 A3007 RMK A01 T01141071  RH  027%=      5-min Rain = 0
KNH1 210023Z 19009KT 11/M07 A3007 RMK A01 T01131071  RH  027%=      5-min Rain = 0
KNH1 210024Z 19009KT 11/M07 A3007 RMK A01 T01131071  RH  027%=      5-min Rain = 0
KNH1 210025Z 19009KT 11/M07 A3007 RMK A01 T01121071  RH  027%=      5-min Rain = 0
KNH1 210026Z 19009KT 11/M07 A3007 RMK A01 T01111071  RH  027%=      5-min Rain = 0
KNH1 210027Z 19009KT 11/M07 A3007 RMK A01 T01101071  RH  027%=      5-min Rain = 0
KNH1 210028Z 19009KT 11/M07 A3007 RMK A01 T01091071  RH  027%=      5-min Rain = 0
KNH1 210029Z 19009KT 11/M07 A3007 RMK A01 T01091071  RH  028%=      5-min Rain = 0
KNH1 210030Z 19009KT 11/M07 A3007 RMK A01 T01081071  RH  028%=      5-min Rain = 0
KNH1 210031Z 19009KT 11/M07 A3007 RMK A01 T01071071  RH  028%=      5-min Rain = 0
KNH1 210032Z 19009KT 11/M07 A3007 RMK A01 T01071071  RH  028%=      5-min Rain = 0
KNH1 210033Z 19009KT 11/M07 A3007 RMK A01 T01071072  RH  028%=      5-min Rain = 0
KNH1 210034Z 19009KT 11/M07 A3007 RMK A01 T01071072  RH  028%=      5-min Rain = 0
KNH1 210035Z 19009KT 11/M07 A3007 RMK A01 T01071071  RH  028%=      5-min Rain = 0
KNH1 210036Z 19009KT 11/M07 A3007 RMK A01 T01071071  RH  028%=      5-min Rain = 0
KNH1 210037Z 19009KT 11/M07 A3007 RMK A01 T01071069  RH  028%=      5-min Rain = 0
KNH1 210038Z 19009KT 11/M07 A3007 RMK A01 T01061070  RH  028%=      5-min Rain = 0
KNH1 210039Z 19009KT 11/M07 A3007 RMK A01 T01051070  RH  028%=      5-min Rain = 0
KNH1 210040Z 19010KT 11/M07 A3007 RMK A01 T01061069  RH  029%=      5-min Rain = 0
KNH1 210041Z 19009KT 11/M07 A3007 RMK A01 T01061069  RH  029%=      5-min Rain = 0
KNH1 210042Z 19009KT 11/M07 A3007 RMK A01 T01051070  RH  029%=      5-min Rain = 0
KNH1 210043Z 19010KT 11/M07 A3007 RMK A01 T01051070  RH  029%=      5-min Rain = 0
KNH1 210044Z 19010KT 11/M07 A3007 RMK A01 T01051069  RH  029%=      5-min Rain = 0
KNH1 210045Z 19010KT 11/M07 A3007 RMK A01 T01051069  RH  029%=      5-min Rain = 0
KNH1 210046Z 19010KT 11/M07 A3007 RMK A01 T01051069  RH  029%=      5-min Rain = 0
KNH1 210047Z 19010KT 10/M07 A3007 RMK A01 T01041069  RH  029%=      5-min Rain = 0
KNH1 210048Z 19010KT 11/M07 A3007 RMK A01 T01051068  RH  029%=      5-min Rain = 0
KNH1 210049Z 19010KT 11/M07 A3007 RMK A01 T01051069  RH  029%=      5-min Rain = 0
KNH1 210050Z 19010KT 11/M07 A3007 RMK A01 T01061068  RH  029%=      5-min Rain = 0
KNH1 210051Z 19010KT 11/M07 A3007 RMK A01 T01061068  RH  029%=      5-min Rain = 0
KNH1 210052Z 20011KT 11/M07 A3007 RMK A01 T01071069  RH  028%=      5-min Rain = 0
KNH1 210053Z 20010KT 11/M07 A3007 RMK A01 T01081069  RH  028%=      5-min Rain = 0
KNH1 210054Z 20010KT 11/M07 A3007 RMK A01 T01081069  RH  028%=      5-min Rain = 0
KNH1 210055Z 20010KT 11/M07 A3007 RMK A01 T01081069  RH  028%=      5-min Rain = 0
KNH1 210056Z 20010KT 11/M07 A3007 RMK A01 T01071069  RH  028%=      5-min Rain = 0
KNH1 210057Z 20010KT 11/M07 A3007 RMK A01 T01061068  RH  029%=      5-min Rain = 0
KNH1 210058Z 20010KT 11/M07 A3007 RMK A01 T01051067  RH  029%=      5-min Rain = 0
KNH1 210059Z 20010KT 10/M07 A3007 RMK A01 T01041067  RH  029%=      5-min Rain = 0
KNH1 210100Z 20011KT 10/M07 A3007 RMK A01 T01031068  RH  029%=      5-min Rain = 0
KNH1 210101Z 20010KT 10/M07 A3006 RMK A01 T01021068  RH  030%=      5-min Rain = 0
KNH1 210102Z 19010KT 10/M07 A3006 RMK A01 T01021068  RH  030%=      5-min Rain = 0
KNH1 210103Z 20010KT 10/M07 A3006 RMK A01 T01011069  RH  030%=      5-min Rain = 0
KNH1 210104Z 20010KT 10/M07 A3006 RMK A01 T01011069  RH  030%=      5-min Rain = 0
KNH1 210105Z 19010KT 10/M07 A3006 RMK A01 T01001069  RH  030%=      5-min Rain = 0
KNH1 210106Z 19010KT 10/M07 A3006 RMK A01 T01001068  RH  030%=      5-min Rain = 0
KNH1 210107Z 19010KT 10/M07 A3006 RMK A01 T00991068  RH  030%=      5-min Rain = 0
KNH1 210108Z 19010KT 10/M07 A3006 RMK A01 T00981068  RH  030%=      5-min Rain = 0
KNH1 210109Z 19010KT 10/M07 A3006 RMK A01 T00981068  RH  030%=      5-min Rain = 0
KNH1 210110Z 19010KT 10/M07 A3006 RMK A01 T00981068  RH  030%=      5-min Rain = 0
KNH1 210111Z 19010KT 10/M07 A3006 RMK A01 T00981068  RH  030%=      5-min Rain = 0
KNH1 210112Z 20010KT 10/M07 A3006 RMK A01 T00981068  RH  030%=      5-min Rain = 0
KNH1 210113Z 20010KT 10/M07 A3006 RMK A01 T00971069  RH  030%=      5-min Rain = 0
KNH1 210114Z 20010KT 10/M07 A3006 RMK A01 T00971068  RH  031%=      5-min Rain = 0
KNH1 210115Z 20010KT 10/M07 A3006 RMK A01 T00971069  RH  031%=      5-min Rain = 0
KNH1 210116Z 20010KT 10/M07 A3006 RMK A01 T00961069  RH  031%=      5-min Rain = 0
KNH1 210117Z 20010KT 10/M07 A3006 RMK A01 T00951069  RH  031%=      5-min Rain = 0
KNH1 210118Z 20010KT 09/M07 A3006 RMK A01 T00941069  RH  031%=      5-min Rain = 0
KNH1 210119Z 19009KT 09/M07 A3006 RMK A01 T00941069  RH  031%=      5-min Rain = 0
KNH1 210120Z 19009KT 09/M07 A3006 RMK A01 T00931069  RH  031%=      5-min Rain = 0
KNH1 210121Z 19009KT 09/M07 A3006 RMK A01 T00921069  RH  031%=      5-min Rain = 0
KNH1 210122Z 19009KT 09/M07 A3006 RMK A01 T00911069  RH  032%=      5-min Rain = 0
KNH1 210123Z 19009KT 09/M07 A3006 RMK A01 T00911068  RH  032%=      5-min Rain = 0
KNH1 210124Z 19009KT 09/M07 A3006 RMK A01 T00901069  RH  032%=      5-min Rain = 0
KNH1 210125Z 19009KT 09/M07 A3006 RMK A01 T00901068  RH  032%=      5-min Rain = 0
KNH1 210126Z 20010KT 09/M07 A3006 RMK A01 T00901068  RH  032%=      5-min Rain = 0
KNH1 210127Z 20009KT 09/M07 A3006 RMK A01 T00891069  RH  032%=      5-min Rain = 0
KNH1 210128Z 19009KT 09/M07 A3006 RMK A01 T00891069  RH  032%=      5-min Rain = 0
KNH1 210129Z 19009KT 09/M07 A3006 RMK A01 T00901068  RH  032%=      5-min Rain = 0
KNH1 210130Z 19009KT 09/M07 A3006 RMK A01 T00891068  RH  032%=      5-min Rain = 0
KNH1 210131Z 20009KT 09/M07 A3006 RMK A01 T00881068  RH  032%=      5-min Rain = 0
KNH1 210132Z 19009KT 09/M07 A3006 RMK A01 T00881068  RH  032%=      5-min Rain = 0
KNH1 210133Z 19009KT 09/M07 A3006 RMK A01 T00881068  RH  032%=      5-min Rain = 0
KNH1 210134Z 19009KT 09/M07 A3006 RMK A01 T00871068  RH  033%=      5-min Rain = 0
KNH1 210135Z 19009KT 09/M07 A3006 RMK A01 T00871068  RH  033%=      5-min Rain = 0
KNH1 210136Z 19009KT 09/M07 A3006 RMK A01 T00861068  RH  033%=      5-min Rain = 0
KNH1 210137Z 19009KT 09/M07 A3006 RMK A01 T00851068  RH  033%=      5-min Rain = 0
KNH1 210138Z 19008KT 08/M07 A3006 RMK A01 T00841068  RH  033%=      5-min Rain = 0
KNH1 210139Z 19008KT 08/M07 A3006 RMK A01 T00831068  RH  034%=      5-min Rain = 0
KNH1 210140Z 19008KT 08/M07 A3006 RMK A01 T00831068  RH  034%=      5-min Rain = 0
KNH1 210141Z 19008KT 08/M07 A3006 RMK A01 T00831067  RH  034%=      5-min Rain = 0
KNH1 210142Z 19008KT 08/M07 A3006 RMK A01 T00821067  RH  034%=      5-min Rain = 0
KNH1 210143Z 19008KT 08/M07 A3006 RMK A01 T00821067  RH  034%=      5-min Rain = 0
KNH1 210144Z 19008KT 08/M07 A3006 RMK A01 T00821067  RH  034%=      5-min Rain = 0
KNH1 210145Z 19007KT 08/M07 A3006 RMK A01 T00811067  RH  034%=      5-min Rain = 0
KNH1 210146Z 19007KT 08/M07 A3006 RMK A01 T00801067  RH  034%=      5-min Rain = 0
KNH1 210147Z 19007KT 08/M07 A3006 RMK A01 T00801067  RH  035%=      5-min Rain = 0
KNH1 210148Z 19008KT 08/M07 A3006 RMK A01 T00801067  RH  035%=      5-min Rain = 0
KNH1 210149Z 19007KT 08/M07 A3006 RMK A01 T00801067  RH  035%=      5-min Rain = 0
KNH1 210150Z 19008KT 08/M07 A3006 RMK A01 T00811066  RH  034%=      5-min Rain = 0
KNH1 210151Z 19008KT 08/M07 A3006 RMK A01 T00821066  RH  034%=      5-min Rain = 0
KNH1 210152Z 19008KT 08/M07 A3006 RMK A01 T00811067  RH  034%=      5-min Rain = 0
KNH1 210153Z 19008KT 08/M07 A3006 RMK A01 T00811068  RH  034%=      5-min Rain = 0
KNH1 210154Z 19007KT 08/M07 A3006 RMK A01 T00791069  RH  034%=      5-min Rain = 0
KNH1 210155Z 19008KT 08/M07 A3006 RMK A01 T00791069  RH  034%=      5-min Rain = 0
KNH1 210156Z 19008KT 08/M07 A3006 RMK A01 T00791069  RH  034%=      5-min Rain = 0
KNH1 210157Z 19008KT 08/M07 A3005 RMK A01 T00781069  RH  035%=      5-min Rain = 0
KNH1 210158Z 19008KT 08/M07 A3005 RMK A01 T00781068  RH  035%=      5-min Rain = 0
KNH1 210159Z 19008KT 08/M07 A3005 RMK A01 T00781068  RH  035%=      5-min Rain = 0
KNH1 210200Z 17008KT 08/M07 A3006 RMK A01 T00801067  RH  035%=      5-min Rain = 0
KNH1 210201Z 18009KT 08/M07 A3006 RMK A01 T00811066  RH  034%=      5-min Rain = 0
KNH1 210202Z 19009KT 08/M07 A3005 RMK A01 T00821067  RH  034%=      5-min Rain = 0
KNH1 210203Z 17008KT 08/M07 A3005 RMK A01 T00821067  RH  034%=      5-min Rain = 0
KNH1 210204Z 17007KT 08/M07 A3005 RMK A01 T00821066  RH  034%=      5-min Rain = 0
KNH1 210205Z 18007KT 08/M07 A3005 RMK A01 T00831066  RH  034%=      5-min Rain = 0
KNH1 210206Z 18007KT 08/M06 A3005 RMK A01 T00831064  RH  035%=      5-min Rain = 0
KNH1 210207Z 18008KT 08/M06 A3005 RMK A01 T00831063  RH  035%=      5-min Rain = 0
KNH1 210208Z 18008KT 08/M06 A3005 RMK A01 T00831062  RH  035%=      5-min Rain = 0
KNH1 210209Z 18009KT 08/M06 A3005 RMK A01 T00821062  RH  035%=      5-min Rain = 0
KNH1 210210Z 18009KT 08/M06 A3005 RMK A01 T00821062  RH  035%=      5-min Rain = 0
KNH1 210211Z 18009KT 08/M06 A3005 RMK A01 T00821062  RH  036%=      5-min Rain = 0
KNH1 210212Z 18007KT 08/M06 A3005 RMK A01 T00811062  RH  036%=      5-min Rain = 0
KNH1 210213Z 18007KT 08/M06 A3005 RMK A01 T00801061  RH  036%=      5-min Rain = 0
KNH1 210214Z 18008KT 08/M06 A3005 RMK A01 T00801061  RH  036%=      5-min Rain = 0
KNH1 210215Z 18009KT 08/M06 A3005 RMK A01 T00791062  RH  036%=      5-min Rain = 0
KNH1 210216Z 18009KT 08/M06 A3005 RMK A01 T00791062  RH  036%=      5-min Rain = 0
KNH1 210217Z 18009KT 08/M06 A3005 RMK A01 T00791061  RH  036%=      5-min Rain = 0
KNH1 210218Z 18009KT 08/M06 A3005 RMK A01 T00791061  RH  036%=      5-min Rain = 0
KNH1 210219Z 18009KT 08/M06 A3005 RMK A01 T00791062  RH  036%=      5-min Rain = 0
KNH1 210220Z 18009KT 08/M06 A3005 RMK A01 T00791062  RH  036%=      5-min Rain = 0
KNH1 210221Z 18010KT 08/M06 A3005 RMK A01 T00791062  RH  036%=      5-min Rain = 0
KNH1 210222Z 18010KT 08/M06 A3005 RMK A01 T00791062  RH  036%=      5-min Rain = 0
KNH1 210223Z 18011KT 08/M06 A3005 RMK A01 T00791062  RH  036%=      5-min Rain = 0
KNH1 210224Z 18010KT 08/M06 A3005 RMK A01 T00791062  RH  036%=      5-min Rain = 0
KNH1 210225Z 19010KT 08/M06 A3005 RMK A01 T00781063  RH  036%=      5-min Rain = 0
KNH1 210226Z 19010KT 08/M06 A3005 RMK A01 T00761063  RH  037%=      5-min Rain = 0
KNH1 210227Z 18010KT 08/M06 A3005 RMK A01 T00751062  RH  037%=      5-min Rain = 0
KNH1 210228Z 19010KT 08/M06 A3005 RMK A01 T00751062  RH  037%=      5-min Rain = 0
KNH1 210229Z 19010KT 08/M06 A3005 RMK A01 T00751062  RH  037%=      5-min Rain = 0
KNH1 210230Z 19011KT 08/M06 A3004 RMK A01 T00751062  RH  037%=      5-min Rain = 0
KNH1 210231Z 19010KT 08/M06 A3004 RMK A01 T00761061  RH  037%=      5-min Rain = 0
KNH1 210232Z 19010KT 08/M06 A3004 RMK A01 T00771061  RH  037%=      5-min Rain = 0
KNH1 210233Z 19010KT 08/M06 A3004 RMK A01 T00781061  RH  037%=      5-min Rain = 0
KNH1 210234Z 19011KT 08/M06 A3004 RMK A01 T00781061  RH  037%=      5-min Rain = 0
KNH1 210235Z 19011KT 08/M06 A3004 RMK A01 T00791060  RH  037%=      5-min Rain = 0
KNH1 210236Z 19011KT 08/M06 A3004 RMK A01 T00791060  RH  037%=      5-min Rain = 0
KNH1 210237Z 19011KT 08/M06 A3004 RMK A01 T00801059  RH  037%=      5-min Rain = 0
KNH1 210238Z 19011KT 08/M06 A3004 RMK A01 T00811059  RH  037%=      5-min Rain = 0
KNH1 210239Z 19011KT 08/M06 A3004 RMK A01 T00811059  RH  037%=      5-min Rain = 0
KNH1 210240Z 19012KT 08/M06 A3004 RMK A01 T00811059  RH  037%=      5-min Rain = 0
KNH1 210241Z 19012KT 08/M06 A3004 RMK A01 T00821058  RH  036%=      5-min Rain = 0
KNH1 210242Z 19011KT 08/M06 A3004 RMK A01 T00821058  RH  036%=      5-min Rain = 0
KNH1 210243Z 19012KT 08/M06 A3004 RMK A01 T00831058  RH  036%=      5-min Rain = 0
KNH1 210244Z 19011KT 08/M06 A3004 RMK A01 T00831058  RH  036%=      5-min Rain = 0
KNH1 210245Z 19012KT 08/M06 A3004 RMK A01 T00831057  RH  036%=      5-min Rain = 0
KNH1 210246Z 19011KT 08/M06 A3004 RMK A01 T00831057  RH  036%=      5-min Rain = 0
KNH1 210247Z 19012KT 08/M06 A3004 RMK A01 T00841057  RH  036%=      5-min Rain = 0
KNH1 210248Z 19012KT 08/M06 A3004 RMK A01 T00841056  RH  037%=      5-min Rain = 0
KNH1 210249Z 19011KT 08/M06 A3004 RMK A01 T00831056  RH  037%=      5-min Rain = 0
KNH1 210250Z 19012KT 08/M06 A3004 RMK A01 T00831055  RH  037%=      5-min Rain = 0
KNH1 210251Z 19012KT 08/M06 A3004 RMK A01 T00831055  RH  037%=      5-min Rain = 0
KNH1 210252Z 19011KT 08/M06 A3004 RMK A01 T00821055  RH  038%=      5-min Rain = 0
KNH1 210253Z 19011KT 08/M05 A3004 RMK A01 T00811054  RH  038%=      5-min Rain = 0
KNH1 210254Z 19011KT 08/M05 A3004 RMK A01 T00811054  RH  038%=      5-min Rain = 0
KNH1 210255Z 19011KT 08/M05 A3004 RMK A01 T00811053  RH  038%=      5-min Rain = 0
KNH1 210256Z 19010KT 08/M05 A3004 RMK A01 T00811053  RH  038%=      5-min Rain = 0
KNH1 210257Z 19011KT 08/M05 A3004 RMK A01 T00801052  RH  039%=      5-min Rain = 0
KNH1 210258Z 19011KT 08/M05 A3004 RMK A01 T00811051  RH  039%=      5-min Rain = 0
KNH1 210259Z 19012KT 08/M05 A3004 RMK A01 T00801050  RH  039%=      5-min Rain = 0
KNH1 210300Z 19012KT 08/M05 A3004 RMK A01 T00811049  RH  039%=      5-min Rain = 0
KNH1 210301Z 19012KT 08/M05 A3004 RMK A01 T00801049  RH  040%=      5-min Rain = 0
KNH1 210302Z 19011KT 08/M05 A3004 RMK A01 T00801048  RH  040%=      5-min Rain = 0
KNH1 210303Z 19012KT 08/M05 A3004 RMK A01 T00801048  RH  040%=      5-min Rain = 0
KNH1 210304Z 19012KT 08/M05 A3004 RMK A01 T00801047  RH  040%=      5-min Rain = 0
KNH1 210305Z 19012KT 08/M05 A3004 RMK A01 T00801047  RH  040%=      5-min Rain = 0
KNH1 210306Z 19012KT 08/M05 A3004 RMK A01 T00801046  RH  041%=      5-min Rain = 0
KNH1 210307Z 19013KT 08/M04 A3004 RMK A01 T00811044  RH  041%=      5-min Rain = 0
KNH1 210308Z 19013KT 08/M04 A3004 RMK A01 T00811044  RH  041%=      5-min Rain = 0
KNH1 210309Z 19014KT 08/M04 A3004 RMK A01 T00811044  RH  041%=      5-min Rain = 0
KNH1 210310Z 19013KT 08/M04 A3004 RMK A01 T00801043  RH  041%=      5-min Rain = 0
KNH1 210311Z 19014KT 08/M04 A3004 RMK A01 T00801043  RH  041%=      5-min Rain = 0
KNH1 210312Z 19014KT 08/M04 A3003 RMK A01 T00811042  RH  041%=      5-min Rain = 0
KNH1 210313Z 19014KT 08/M04 A3003 RMK A01 T00811043  RH  041%=      5-min Rain = 0
KNH1 210314Z 19013KT 08/M04 A3003 RMK A01 T00811042  RH  041%=      5-min Rain = 0
KNH1 210315Z 19014KT 08/M04 A3003 RMK A01 T00801042  RH  042%=      5-min Rain = 0
KNH1 210316Z 19014KT 08/M04 A3003 RMK A01 T00801041  RH  042%=      5-min Rain = 0
KNH1 210317Z 19014KT 08/M04 A3003 RMK A01 T00811041  RH  042%=      5-min Rain = 0
KNH1 210318Z 19013KT 08/M04 A3003 RMK A01 T00811040  RH  042%=      5-min Rain = 0
KNH1 210319Z 19013KT 08/M04 A3003 RMK A01 T00811040  RH  042%=      5-min Rain = 0
KNH1 210320Z 19013KT 08/M04 A3003 RMK A01 T00821039  RH  042%=      5-min Rain = 0
KNH1 210321Z 19013KT 08/M04 A3003 RMK A01 T00821038  RH  042%=      5-min Rain = 0
KNH1 210322Z 19014KT 08/M04 A3003 RMK A01 T00811038  RH  043%=      5-min Rain = 0
KNH1 210323Z 19013KT 08/M04 A3003 RMK A01 T00821037  RH  043%=      5-min Rain = 0
KNH1 210324Z 19014KT 08/M04 A3003 RMK A01 T00821037  RH  043%=      5-min Rain = 0
KNH1 210325Z 19014KT 08/M04 A3003 RMK A01 T00821036  RH  043%=      5-min Rain = 0
KNH1 210326Z 19013KT 08/M04 A3003 RMK A01 T00821036  RH  043%=      5-min Rain = 0
KNH1 210327Z 19014KT 08/M04 A3003 RMK A01 T00821035  RH  043%=      5-min Rain = 0
KNH1 210328Z 19015KT 08/M03 A3003 RMK A01 T00821034  RH  044%=      5-min Rain = 0
KNH1 210329Z 20015KT 08/M03 A3003 RMK A01 T00821033  RH  044%=      5-min Rain = 0
KNH1 210330Z 19015KT 08/M03 A3003 RMK A01 T00831033  RH  044%=      5-min Rain = 0
KNH1 210331Z 19014KT 08/M03 A3003 RMK A01 T00831033  RH  044%=      5-min Rain = 0
KNH1 210332Z 19014KT 08/M03 A3003 RMK A01 T00831032  RH  044%=      5-min Rain = 0
KNH1 210333Z 19015KT 08/M03 A3002 RMK A01 T00831032  RH  044%=      5-min Rain = 0
KNH1 210334Z 19015KT 08/M03 A3002 RMK A01 T00821032  RH  044%=      5-min Rain = 0
KNH1 210335Z 19015KT 08/M03 A3002 RMK A01 T00821031  RH  045%=      5-min Rain = 0
KNH1 210336Z 20014KT 08/M03 A3002 RMK A01 T00821031  RH  045%=      5-min Rain = 0
KNH1 210337Z 20013KT 08/M03 A3002 RMK A01 T00821031  RH  045%=      5-min Rain = 0
KNH1 210338Z 20013KT 08/M03 A3002 RMK A01 T00831031  RH  045%=      5-min Rain = 0
KNH1 210339Z 19014KT 08/M03 A3002 RMK A01 T00821030  RH  045%=      5-min Rain = 0
KNH1 210340Z 19013KT 08/M03 A3002 RMK A01 T00821030  RH  045%=      5-min Rain = 0
KNH1 210341Z 19014KT 08/M03 A3002 RMK A01 T00811030  RH  045%=      5-min Rain = 0
KNH1 210342Z 20013KT 08/M03 A3002 RMK A01 T00811029  RH  046%=      5-min Rain = 0
KNH1 210343Z 19014KT 08/M03 A3002 RMK A01 T00821029  RH  046%=      5-min Rain = 0
KNH1 210344Z 19014KT 08/M03 A3002 RMK A01 T00811029  RH  046%=      5-min Rain = 0
KNH1 210345Z 19015KT 08/M03 A3002 RMK A01 T00811028  RH  046%=      5-min Rain = 0
KNH1 210346Z 19014KT 08/M03 A3002 RMK A01 T00821028  RH  046%=      5-min Rain = 0
KNH1 210347Z 19014KT 08/M03 A3002 RMK A01 T00811028  RH  046%=      5-min Rain = 0
KNH1 210348Z 19014KT 08/M03 A3002 RMK A01 T00811028  RH  046%=      5-min Rain = 0
KNH1 210349Z 19014KT 08/M03 A3002 RMK A01 T00811028  RH  046%=      5-min Rain = 0
KNH1 210350Z 19014KT 08/M03 A3002 RMK A01 T00811028  RH  046%=      5-min Rain = 0
KNH1 210351Z 19014KT 08/M03 A3002 RMK A01 T00801027  RH  047%=      5-min Rain = 0
KNH1 210352Z 19013KT 08/M03 A3002 RMK A01 T00791027  RH  047%=      5-min Rain = 0
KNH1 210353Z 19014KT 08/M03 A3002 RMK A01 T00791026  RH  047%=      5-min Rain = 0
KNH1 210354Z 19014KT 08/M03 A3002 RMK A01 T00791026  RH  047%=      5-min Rain = 0
KNH1 210355Z 19014KT 08/M03 A3002 RMK A01 T00781026  RH  047%=      5-min Rain = 0
KNH1 210356Z 19014KT 08/M03 A3002 RMK A01 T00791026  RH  048%=      5-min Rain = 0
KNH1 210357Z 19014KT 08/M03 A3002 RMK A01 T00791025  RH  048%=      5-min Rain = 0
KNH1 210358Z 20013KT 08/M03 A3002 RMK A01 T00791025  RH  048%=      5-min Rain = 0
KNH1 210359Z 20014KT 08/M03 A3002 RMK A01 T00791025  RH  048%=      5-min Rain = 0
KNH1 210400Z 20013KT 08/M02 A3002 RMK A01 T00791024  RH  048%=      5-min Rain = 0
KNH1 210401Z 20013KT 08/M02 A3002 RMK A01 T00791024  RH  048%=      5-min Rain = 0
KNH1 210402Z 20013KT 08/M02 A3002 RMK A01 T00781024  RH  048%=      5-min Rain = 0
KNH1 210403Z 20013KT 08/M02 A3002 RMK A01 T00781024  RH  048%=      5-min Rain = 0
KNH1 210404Z 20013KT 08/M02 A3002 RMK A01 T00781024  RH  048%=      5-min Rain = 0
KNH1 210405Z 20014KT 08/M02 A3002 RMK A01 T00781024  RH  049%=      5-min Rain = 0
KNH1 210406Z 20013KT 08/M02 A3002 RMK A01 T00781023  RH  049%=      5-min Rain = 0
KNH1 210407Z 20013KT 08/M02 A3002 RMK A01 T00781023  RH  049%=      5-min Rain = 0
KNH1 210408Z 20013KT 08/M02 A3002 RMK A01 T00771023  RH  049%=      5-min Rain = 0
KNH1 210409Z 20014KT 08/M02 A3002 RMK A01 T00761023  RH  049%=      5-min Rain = 0
KNH1 210410Z 20013KT 08/M02 A3002 RMK A01 T00761023  RH  049%=      5-min Rain = 0
KNH1 210411Z 20014KT 08/M02 A3002 RMK A01 T00771023  RH  049%=      5-min Rain = 0
KNH1 210412Z 20013KT 08/M02 A3002 RMK A01 T00771022  RH  049%=      5-min Rain = 0
KNH1 210413Z 20013KT 08/M02 A3002 RMK A01 T00771023  RH  049%=      5-min Rain = 0
KNH1 210414Z 20013KT 08/M02 A3002 RMK A01 T00771023  RH  049%=      5-min Rain = 0
KNH1 210415Z 20013KT 08/M02 A3002 RMK A01 T00771022  RH  050%=      5-min Rain = 0
KNH1 210416Z 20014KT 08/M02 A3002 RMK A01 T00771022  RH  050%=      5-min Rain = 0
KNH1 210417Z 20013KT 08/M02 A3002 RMK A01 T00771022  RH  049%=      5-min Rain = 0
KNH1 210418Z 20014KT 08/M02 A3002 RMK A01 T00771022  RH  049%=      5-min Rain = 0
KNH1 210419Z 20013KT 08/M02 A3002 RMK A01 T00771022  RH  049%=      5-min Rain = 0
KNH1 210420Z 20013KT 08/M02 A3002 RMK A01 T00771022  RH  049%=      5-min Rain = 0
KNH1 210421Z 19013KT 08/M02 A3002 RMK A01 T00771022  RH  049%=      5-min Rain = 0
KNH1 210422Z 20012KT 08/M02 A3002 RMK A01 T00771022  RH  049%=      5-min Rain = 0
KNH1 210423Z 20012KT 08/M02 A3002 RMK A01 T00761022  RH  050%=      5-min Rain = 0
KNH1 210424Z 20013KT 08/M02 A3002 RMK A01 T00761022  RH  050%=      5-min Rain = 0
KNH1 210425Z 19013KT 08/M02 A3002 RMK A01 T00761022  RH  050%=      5-min Rain = 0
KNH1 210426Z 19012KT 08/M02 A3002 RMK A01 T00761022  RH  050%=      5-min Rain = 0
KNH1 210427Z 20013KT 08/M02 A3002 RMK A01 T00751022  RH  050%=      5-min Rain = 0
KNH1 210428Z 19013KT 08/M02 A3002 RMK A01 T00751022  RH  050%=      5-min Rain = 0
KNH1 210429Z 20013KT 08/M02 A3002 RMK A01 T00751021  RH  050%=      5-min Rain = 0
KNH1 210430Z 20013KT 08/M02 A3003 RMK A01 T00751021  RH  050%=      5-min Rain = 0
KNH1 210431Z 20014KT 08/M02 A3003 RMK A01 T00751021  RH  050%=      5-min Rain = 0
KNH1 210432Z 20013KT 08/M02 A3003 RMK A01 T00751021  RH  050%=      5-min Rain = 0
KNH1 210433Z 20012KT 08/M02 A3003 RMK A01 T00751022  RH  050%=      5-min Rain = 0
KNH1 210434Z 20012KT 07/M02 A3003 RMK A01 T00741022  RH  051%=      5-min Rain = 0
KNH1 210435Z 20013KT 07/M02 A3003 RMK A01 T00731022  RH  051%=      5-min Rain = 0
KNH1 210436Z 20013KT 07/M02 A3003 RMK A01 T00721022  RH  051%=      5-min Rain = 0
KNH1 210437Z 20012KT 07/M02 A3003 RMK A01 T00731021  RH  051%=      5-min Rain = 0
KNH1 210438Z 20012KT 07/M02 A3003 RMK A01 T00721022  RH  051%=      5-min Rain = 0
KNH1 210439Z 20013KT 07/M02 A3003 RMK A01 T00721021  RH  052%=      5-min Rain = 0
KNH1 210440Z 20012KT 07/M02 A3003 RMK A01 T00721021  RH  052%=      5-min Rain = 0
KNH1 210441Z 20012KT 07/M02 A3003 RMK A01 T00721021  RH  051%=      5-min Rain = 0
KNH1 210442Z 21012KT 07/M02 A3003 RMK A01 T00721021  RH  051%=      5-min Rain = 0
KNH1 210443Z 20011KT 07/M02 A3003 RMK A01 T00721022  RH  051%=      5-min Rain = 0
KNH1 210444Z 20013KT 07/M02 A3003 RMK A01 T00711022  RH  052%=      5-min Rain = 0
KNH1 210445Z 20014KT 07/M02 A3003 RMK A01 T00711021  RH  052%=      5-min Rain = 0
KNH1 210446Z 21014KT 07/M02 A3003 RMK A01 T00721021  RH  052%=      5-min Rain = 0
KNH1 210447Z 20014KT 07/M02 A3003 RMK A01 T00711022  RH  052%=      5-min Rain = 0
KNH1 210448Z 20013KT 07/M02 A3003 RMK A01 T00721021  RH  052%=      5-min Rain = 0
KNH1 210449Z 21013KT 07/M02 A3003 RMK A01 T00711021  RH  052%=      5-min Rain = 0
KNH1 210450Z 21013KT 07/M02 A3003 RMK A01 T00711021  RH  052%=      5-min Rain = 0
KNH1 210451Z 21013KT 07/M02 A3003 RMK A01 T00701021  RH  052%=      5-min Rain = 0
KNH1 210452Z 21013KT 07/M02 A3003 RMK A01 T00701021  RH  052%=      5-min Rain = 0
KNH1 210453Z 21013KT 07/M02 A3003 RMK A01 T00701021  RH  052%=      5-min Rain = 0
KNH1 210454Z 21013KT 07/M02 A3003 RMK A01 T00691022  RH  052%=      5-min Rain = 0
KNH1 210455Z 21012KT 07/M02 A3003 RMK A01 T00681022  RH  053%=      5-min Rain = 0
KNH1 210456Z 21012KT 07/M02 A3003 RMK A01 T00681022  RH  053%=      5-min Rain = 0
KNH1 210457Z 21012KT 07/M02 A3003 RMK A01 T00671022  RH  053%=      5-min Rain = 0
KNH1 210458Z 21012KT 07/M02 A3003 RMK A01 T00661023  RH  053%=      5-min Rain = 0
KNH1 210459Z 21011KT 06/M02 A3003 RMK A01 T00641023  RH  053%=      5-min Rain = 0
KNH1 210500Z 21012KT 06/M02 A3003 RMK A01 T00631023  RH  054%=      5-min Rain = 0
KNH1 210501Z 21012KT 06/M02 A3003 RMK A01 T00631023  RH  054%=      5-min Rain = 0
KNH1 210502Z 21012KT 06/M02 A3003 RMK A01 T00641023  RH  054%=      5-min Rain = 0
KNH1 210503Z 21013KT 06/M02 A3003 RMK A01 T00641023  RH  054%=      5-min Rain = 0
KNH1 210504Z 21013KT 07/M02 A3003 RMK A01 T00651022  RH  054%=      5-min Rain = 0
KNH1 210505Z 21013KT 07/M02 A3003 RMK A01 T00661022  RH  054%=      5-min Rain = 0
KNH1 210506Z 21013KT 07/M02 A3003 RMK A01 T00661022  RH  054%=      5-min Rain = 0
KNH1 210507Z 21013KT 07/M02 A3003 RMK A01 T00651022  RH  054%=      5-min Rain = 0
KNH1 210508Z 21013KT 07/M02 A3003 RMK A01 T00651022  RH  054%=      5-min Rain = 0
KNH1 210509Z 21013KT 07/M02 A3003 RMK A01 T00651022  RH  054%=      5-min Rain = 0
KNH1 210510Z 21014KT 06/M02 A3003 RMK A01 T00641023  RH  054%=      5-min Rain = 0
KNH1 210511Z 21014KT 07/M02 A3003 RMK A01 T00651022  RH  054%=      5-min Rain = 0
KNH1 210512Z 21014KT 07/M02 A3003 RMK A01 T00651023  RH  054%=      5-min Rain = 0
KNH1 210513Z 21013KT 06/M02 A3003 RMK A01 T00641022  RH  054%=      5-min Rain = 0
KNH1 210514Z 21013KT 07/M02 A3003 RMK A01 T00651022  RH  054%=      5-min Rain = 0
KNH1 210515Z 21013KT 06/M02 A3003 RMK A01 T00641022  RH  054%=      5-min Rain = 0
KNH1 210516Z 21013KT 06/M02 A3003 RMK A01 T00641023  RH  054%=      5-min Rain = 0
KNH1 210517Z 21013KT 06/M02 A3003 RMK A01 T00641022  RH  054%=      5-min Rain = 0
KNH1 210518Z 21013KT 06/M02 A3003 RMK A01 T00631022  RH  054%=      5-min Rain = 0
KNH1 210519Z 21013KT 06/M02 A3003 RMK A01 T00631022  RH  055%=      5-min Rain = 0
KNH1 210520Z 21014KT 06/M02 A3003 RMK A01 T00621022  RH  055%=      5-min Rain = 0
KNH1 210521Z 21013KT 06/M02 A3003 RMK A01 T00631021  RH  055%=      5-min Rain = 0
KNH1 210522Z 21013KT 06/M02 A3003 RMK A01 T00631021  RH  055%=      5-min Rain = 0
KNH1 210523Z 21013KT 06/M02 A3003 RMK A01 T00621022  RH  055%=      5-min Rain = 0
KNH1 210524Z 21013KT 06/M02 A3003 RMK A01 T00621022  RH  055%=      5-min Rain = 0
KNH1 210525Z 21013KT 06/M02 A3003 RMK A01 T00621022  RH  055%=      5-min Rain = 0
KNH1 210526Z 21014KT 06/M02 A3003 RMK A01 T00611021  RH  055%=      5-min Rain = 0
KNH1 210527Z 21013KT 06/M02 A3003 RMK A01 T00611021  RH  055%=      5-min Rain = 0
KNH1 210528Z 21013KT 06/M02 A3003 RMK A01 T00611022  RH  055%=      5-min Rain = 0
KNH1 210529Z 21013KT 06/M02 A3003 RMK A01 T00611022  RH  056%=      5-min Rain = 0
KNH1 210530Z 21013KT 06/M02 A3003 RMK A01 T00601022  RH  056%=      5-min Rain = 0
KNH1 210531Z 21013KT 06/M02 A3003 RMK A01 T00601021  RH  056%=      5-min Rain = 0
KNH1 210532Z 21013KT 06/M02 A3003 RMK A01 T00611021  RH  056%=      5-min Rain = 0
KNH1 210533Z 21014KT 06/M02 A3003 RMK A01 T00611021  RH  056%=      5-min Rain = 0
KNH1 210534Z 21013KT 06/M02 A3003 RMK A01 T00621021  RH  056%=      5-min Rain = 0
KNH1 210535Z 21013KT 06/M02 A3003 RMK A01 T00621020  RH  055%=      5-min Rain = 0
KNH1 210536Z 21013KT 06/M02 A3003 RMK A01 T00631020  RH  055%=      5-min Rain = 0
KNH1 210537Z 21013KT 06/M02 A3002 RMK A01 T00631021  RH  055%=      5-min Rain = 0
KNH1 210538Z 21013KT 06/M02 A3003 RMK A01 T00621021  RH  055%=      5-min Rain = 0
KNH1 210539Z 21012KT 06/M02 A3003 RMK A01 T00631020  RH  055%=      5-min Rain = 0
KNH1 210540Z 21014KT 06/M02 A3002 RMK A01 T00621021  RH  055%=      5-min Rain = 0
KNH1 210541Z 21013KT 06/M02 A3002 RMK A01 T00631020  RH  055%=      5-min Rain = 0
KNH1 210542Z 21013KT 06/M02 A3003 RMK A01 T00631020  RH  055%=      5-min Rain = 0
KNH1 210543Z 21012KT 06/M02 A3003 RMK A01 T00631020  RH  055%=      5-min Rain = 0
KNH1 210544Z 21013KT 06/M02 A3003 RMK A01 T00631020  RH  055%=      5-min Rain = 0
KNH1 210545Z 21013KT 06/M02 A3003 RMK A01 T00631020  RH  055%=      5-min Rain = 0
KNH1 210546Z 21013KT 06/M02 A3002 RMK A01 T00631020  RH  055%=      5-min Rain = 0
KNH1 210547Z 21014KT 06/M02 A3002 RMK A01 T00641020  RH  055%=      5-min Rain = 0
KNH1 210548Z 21014KT 06/M02 A3002 RMK A01 T00641020  RH  055%=      5-min Rain = 0
KNH1 210549Z 21013KT 07/M02 A3003 RMK A01 T00651019  RH  055%=      5-min Rain = 0
KNH1 210550Z 21014KT 07/M02 A3003 RMK A01 T00651019  RH  055%=      5-min Rain = 0
KNH1 210551Z 21013KT 07/M02 A3003 RMK A01 T00651019  RH  055%=      5-min Rain = 0
KNH1 210552Z 21013KT 06/M02 A3003 RMK A01 T00641020  RH  055%=      5-min Rain = 0
KNH1 210553Z 21014KT 06/M02 A3002 RMK A01 T00631021  RH  055%=      5-min Rain = 0
KNH1 210554Z 21013KT 06/M02 A3002 RMK A01 T00631021  RH  055%=      5-min Rain = 0
KNH1 210555Z 21013KT 06/M02 A3002 RMK A01 T00631021  RH  055%=      5-min Rain = 0
KNH1 210556Z 22013KT 06/M02 A3002 RMK A01 T00631021  RH  055%=      5-min Rain = 0
KNH1 210557Z 21014KT 06/M02 A3002 RMK A01 T00631021  RH  055%=      5-min Rain = 0
KNH1 210558Z 21014KT 06/M02 A3002 RMK A01 T00631021  RH  055%=      5-min Rain = 0
KNH1 210559Z 21013KT 06/M02 A3002 RMK A01 T00631021  RH  055%=      5-min Rain = 0

Page generated in 0.3445 seconds.